M I D A S
Marine Information and Data Acquisition System
Tripno 448 of the Zeeleeuw from 2003-03-19 07:25:30 to 2003-03-19 14:17:29
Back to CruiseResearch ActivitiesStationsMapUnderway DataData graphs

EquipmentUnitsComment
TimeDGPSUTC
LatitudeDGPSDM.mWGS84
LongitudeDGPSDM.mWGS84
TemperatureSBE03/SBE38deg celciusITS90
ConductivitySBE21S/mITS90
SalinitySBE21 Practical Salinity Units
ChlorophylAChelsea fluorimeterg/lCalibrated in Aceton
Missing or incorrect values are displayed as -999
Sea surface data collected by the RV Zeeleeuw from 2003-03-19 07:25:30 to 2003-03-19 14:17:29
                                                                                    Next 1000 lines
Time Latitude Longitude Temperature Conductivity Salinity ChlorophylA
2003-03-19 07:25:38 51°13.599 2°56.106 13.854121 0.066535 0.382536 -0.71383
2003-03-19 07:25:42 51°13.599 2°56.106 13.854253 0.066535 0.382536 -0.71383
2003-03-19 07:25:48 51°13.599 2°56.106 13.854607 0.066431 0.381925 -0.71383
2003-03-19 07:25:54 51°13.599 2°56.106 13.85536 0.066431 0.381925 -0.71383
2003-03-19 07:25:58 51°13.599 2°56.106 13.85536 0.066431 0.381925 -0.71383
2003-03-19 07:26:04 51°13.599 2°56.106 13.856289 0.066431 0.381918 -0.680121
2003-03-19 07:26:08 51°13.599 2°56.106 13.857705 0.066431 0.381925 -0.71383
2003-03-19 07:26:14 51°13.599 2°56.106 13.858369 0.066431 0.381925 -0.680121
2003-03-19 07:26:18 51°13.599 2°56.105 13.858369 0.066431 0.381925 -0.71383
2003-03-19 07:26:22 51°13.599 2°56.105 13.85859 0.066535 0.38255 -0.71383
2003-03-19 07:26:28 51°13.599 2°56.105 13.85859 0.066535 0.38255 -0.71383
2003-03-19 07:26:32 51°13.599 2°56.105 13.858634 0.066431 0.381932 -0.71383
2003-03-19 07:26:38 51°13.599 2°56.105 13.858634 0.066535 0.38255 -0.71383
2003-03-19 07:26:44 51°13.599 2°56.105 13.858147 0.066535 0.38255 -0.71383
2003-03-19 07:26:48 51°13.598 2°56.105 13.857351 0.066535 0.38255 -0.71383
2003-03-19 07:26:53 51°13.598 2°56.104 13.856908 0.066431 0.381932 -0.71383
2003-03-19 07:26:58 51°13.598 2°56.104 13.856908 0.066431 0.381932 -0.71383
2003-03-19 07:27:02 51°13.598 2°56.104 13.856156 0.066431 0.381932 -0.71383
2003-03-19 07:27:08 51°13.598 2°56.104 13.85505 0.066535 0.38255 -0.680121
2003-03-19 07:27:13 51°13.597 2°56.104 13.855006 0.066431 0.381932 -0.71383
2003-03-19 07:27:18 51°13.598 2°56.103 13.85536 0.066431 0.381932 -0.680121
2003-03-19 07:27:24 51°13.598 2°56.104 13.855846 0.066431 0.381932 -0.71383
2003-03-19 07:27:28 51°13.598 2°56.104 13.855846 0.066431 0.381932 -0.71383
2003-03-19 07:27:34 51°13.598 2°56.104 13.858944 0.066535 0.382556 -0.71383
2003-03-19 07:27:38 51°13.598 2°56.103 13.892032 0.066431 0.381938 -0.680121
2003-03-19 07:27:44 51°13.599 2°56.102 13.891678 0.066431 0.381932 -0.71383
2003-03-19 07:27:48 51°13.599 2°56.1 13.857484 0.066431 0.381938 -0.680121
2003-03-19 07:27:53 51°13.599 2°56.097 13.870535 0.066431 0.381925 -0.71383
2003-03-19 07:27:58 51°13.6 2°56.094 13.870535 0.066431 0.381925 -0.71383
2003-03-19 07:28:04 51°13.601 2°56.088 13.869695 0.066431 0.381918 -0.71383
2003-03-19 07:28:10 51°13.602 2°56.082 13.870137 0.066431 0.381918 -0.71383
2003-03-19 07:28:14 51°13.604 2°56.077 13.877082 0.066431 0.381912 -0.71383
2003-03-19 07:28:20 51°13.605 2°56.069 13.877834 0.066431 0.381932 -0.71383
2003-03-19 07:28:25 51°13.606 2°56.062 13.878409 0.066431 0.381951 -0.74754
2003-03-19 07:28:30 51°13.608 2°56.055 13.878409 0.066431 0.381951 -0.74754
2003-03-19 07:28:34 51°13.609 2°56.048 13.878277 0.066431 0.381951 -0.680121
2003-03-19 07:28:39 51°13.611 2°56.041 13.87549 0.066431 0.381951 -0.71383
2003-03-19 07:28:44 51°13.612 2°56.033 13.863988 0.066431 0.381938 -0.71383
2003-03-19 07:28:50 51°13.614 2°56.025 13.857705 0.066431 0.381925 -0.71383
2003-03-19 07:28:54 51°13.615 2°56.02 13.862528 0.066535 0.38253 -0.71383
2003-03-19 07:28:58 51°13.615 2°56.015 13.862528 0.066535 0.38253 -0.71383
2003-03-19 07:29:02 51°13.616 2°56.011 13.86589 0.066431 0.381912 -0.680121
2003-03-19 07:29:09 51°13.617 2°56.003 13.867217 0.066431 0.381925 -0.680121
2003-03-19 07:29:13 51°13.618 2°56 13.866996 0.066431 0.381925 -0.71383
2003-03-19 07:29:18 51°13.619 2°55.995 13.866686 0.066535 0.38255 -0.71383
2003-03-19 07:29:24 51°13.62 2°55.991 13.867881 0.066535 0.382563 -0.71383
2003-03-19 07:29:28 51°13.621 2°55.988 13.867881 0.066535 0.382563 -0.71383
2003-03-19 07:29:34 51°13.621 2°55.984 13.868589 0.066535 0.382556 -0.71383
2003-03-19 07:29:38 51°13.622 2°55.981 13.867262 0.066431 0.381938 -0.71383
2003-03-19 07:29:44 51°13.623 2°55.978 13.869341 0.066535 0.38255 -0.74754
2003-03-19 07:29:49 51°13.624 2°55.975 13.877702 0.066431 0.381925 -0.680121
2003-03-19 07:29:54 51°13.625 2°55.971 13.889555 0.066431 0.381918 -0.71383
2003-03-19 07:29:58 51°13.626 2°55.968 13.889555 0.066431 0.381918 -0.71383
2003-03-19 07:30:02 51°13.627 2°55.964 13.885354 0.066535 0.382543 -0.71383
2003-03-19 07:30:09 51°13.629 2°55.957 13.897648 0.066535 0.382536 -0.71383
2003-03-19 07:30:15 51°13.631 2°55.949 13.891811 0.066431 0.381918 -0.71383
2003-03-19 07:30:20 51°13.633 2°55.941 -999 0.066535 0.382543 -0.71383
2003-03-19 07:30:24 51°13.635 2°55.935 -999 0.066431 0.381932 -0.680121
2003-03-19 07:30:30 51°13.638 2°55.926 -999 0.066431 0.381932 -0.680121
2003-03-19 07:30:34 51°13.641 2°55.92 -999 0.066431 0.381938 -0.74754
2003-03-19 07:30:40 51°13.644 2°55.91 -999 0.066431 0.381945 -0.74754
2003-03-19 07:30:45 51°13.647 2°55.902 -999 0.066431 0.381951 -0.71383
2003-03-19 07:30:50 51°13.65 2°55.893 -999 0.066535 0.382563 -0.71383
2003-03-19 07:30:54 51°13.653 2°55.886 -999 0.066431 0.381945 -0.71383
2003-03-19 07:31:00 51°13.657 2°55.875 -999 0.066431 0.381945 -0.71383
2003-03-19 07:31:04 51°13.659 2°55.868 -999 0.066431 0.381938 -0.71383
2003-03-19 07:31:10 51°13.663 2°55.858 -999 0.066431 0.381938 -0.71383
2003-03-19 07:31:14 51°13.664 2°55.85 -999 0.066431 0.381938 -0.71383
2003-03-19 07:31:20 51°13.667 2°55.839 -999 0.066431 0.381945 -0.71383
2003-03-19 07:31:24 51°13.669 2°55.832 -999 0.066535 0.38255 -0.680121
2003-03-19 07:31:30 51°13.672 2°55.821 -999 0.066535 0.38255 -0.680121
2003-03-19 07:31:34 51°13.674 2°55.814 -999 0.066431 0.381938 -0.71383
2003-03-19 07:31:40 51°13.677 2°55.804 -999 0.066431 0.381945 -0.680121
2003-03-19 07:31:44 51°13.679 2°55.797 -999 0.066535 0.382556 -0.71383
2003-03-19 07:31:49 51°13.681 2°55.788 -999 0.066431 0.381951 -0.680121
2003-03-19 07:31:54 51°13.683 2°55.78 -999 0.066431 0.381945 -0.71383
2003-03-19 07:32:00 51°13.686 2°55.77 -999 0.066431 0.381945 -0.71383
2003-03-19 07:32:04 51°13.688 2°55.764 -999 0.066431 0.381945 -0.680121
2003-03-19 07:32:09 51°13.69 2°55.756 -999 0.066431 0.381938 -0.71383
2003-03-19 07:32:14 51°13.692 2°55.749 -999 0.066431 0.381945 -0.680121
2003-03-19 07:32:18 51°13.693 2°55.743 -999 0.066431 0.381945 -0.680121
2003-03-19 07:32:24 51°13.694 2°55.737 -999 0.066431 0.381945 -0.680121
2003-03-19 07:32:28 51°13.695 2°55.733 -999 0.066431 0.381945 -0.680121
2003-03-19 07:32:34 51°13.696 2°55.727 -999 0.066431 0.381945 -0.71383
2003-03-19 07:32:38 51°13.696 2°55.724 -999 0.066431 0.381938 -0.680121
2003-03-19 07:32:44 51°13.697 2°55.72 -999 0.066535 0.382563 -0.71383
2003-03-19 07:32:48 51°13.697 2°55.717 -999 0.066431 0.381951 -0.71383
2003-03-19 07:32:54 51°13.697 2°55.715 -999 0.066535 0.382563 -0.71383
2003-03-19 07:32:58 51°13.698 2°55.713 -999 0.066535 0.382563 -0.71383
2003-03-19 07:33:02 51°13.698 2°55.712 -999 0.066535 0.382569 -0.680121
2003-03-19 07:33:08 51°13.698 2°55.712 -999 0.066431 0.381951 -0.680121
2003-03-19 07:33:14 51°13.699 2°55.711 -999 0.066535 0.382569 -0.71383
2003-03-19 07:33:18 51°13.699 2°55.712 -999 0.066535 0.382576 -0.71383
2003-03-19 07:33:22 51°13.7 2°55.712 -999 0.066535 0.382576 -0.680121
2003-03-19 07:33:29 51°13.701 2°55.715 -999 0.066535 0.382576 -0.680121
2003-03-19 07:33:34 51°13.702 2°55.717 -999 0.066535 0.382569 -0.71383
2003-03-19 07:33:38 51°13.703 2°55.719 -999 0.066431 0.381964 -0.680121
2003-03-19 07:33:44 51°13.705 2°55.72 -999 0.066431 0.381964 -0.71383
2003-03-19 07:33:48 51°13.707 2°55.721 -999 0.066431 0.381964 -0.71383
2003-03-19 07:33:54 51°13.707 2°55.723 -999 0.066431 0.381971 -0.71383
2003-03-19 07:33:58 51°13.708 2°55.722 -999 0.066431 0.381971 -0.71383
2003-03-19 07:34:02 51°13.709 2°55.722 -999 0.066535 0.382589 -0.680121
2003-03-19 07:34:08 51°13.709 2°55.721 -999 0.066535 0.382576 -0.680121
2003-03-19 07:34:13 51°13.708 2°55.719 -999 0.066431 0.381958 -0.680121
2003-03-19 07:34:18 51°13.708 2°55.717 -999 0.066431 0.381964 -0.71383
2003-03-19 07:34:23 51°13.707 2°55.715 -999 0.066431 0.381964 -0.71383
2003-03-19 07:34:29 51°13.705 2°55.712 -999 0.066431 0.381964 -0.71383
2003-03-19 07:34:34 51°13.704 2°55.71 -999 0.066431 0.381964 -0.680121
2003-03-19 07:34:38 51°13.703 2°55.709 -999 0.066535 0.382576 -0.71383
2003-03-19 07:34:44 51°13.702 2°55.707 -999 0.066431 0.381958 -0.71383
2003-03-19 07:34:49 51°13.702 2°55.705 -999 0.066431 0.381951 -0.71383
2003-03-19 07:34:54 51°13.702 2°55.704 -999 0.066431 0.381958 -0.71383
2003-03-19 07:34:58 51°13.702 2°55.704 -999 0.066431 0.381958 -0.71383
2003-03-19 07:35:04 51°13.703 2°55.703 -999 0.066431 0.381958 -0.71383
2003-03-19 07:35:09 51°13.704 2°55.703 -999 0.066535 0.382576 -0.680121
2003-03-19 07:35:12 51°13.704 2°55.703 -999 0.066431 0.381964 -0.71383
2003-03-19 07:35:18 51°13.706 2°55.702 -999 0.066431 0.381971 -0.680121
2003-03-19 07:35:24 51°13.709 2°55.702 -999 0.066431 0.381971 -0.71383
2003-03-19 07:35:28 51°13.71 2°55.701 -999 0.066431 0.381971 -0.71383
2003-03-19 07:35:34 51°13.713 2°55.7 -999 0.066431 0.381978 -0.680121
2003-03-19 07:35:38 51°13.715 2°55.699 -999 0.066431 0.381978 -0.71383
2003-03-19 07:35:44 51°13.718 2°55.697 -999 0.066431 0.381971 -0.71383
2003-03-19 07:35:48 51°13.721 2°55.695 -999 0.066431 0.381964 -0.71383
2003-03-19 07:35:54 51°13.725 2°55.693 -999 0.066431 0.381964 -0.71383
2003-03-19 07:35:58 51°13.728 2°55.691 -999 0.066431 0.381964 -0.71383
2003-03-19 07:36:04 51°13.733 2°55.688 -999 0.066431 0.381958 -0.71383
2003-03-19 07:36:08 51°13.736 2°55.686 -999 0.066431 0.381951 -0.680121
2003-03-19 07:36:14 51°13.742 2°55.682 -999 0.066431 0.381945 -0.680121
2003-03-19 07:36:18 51°13.747 2°55.679 -999 0.066431 0.381951 -0.71383
2003-03-19 07:36:24 51°13.754 2°55.674 -999 0.066431 0.381951 -0.71383
2003-03-19 07:36:29 51°13.76 2°55.67 -999 0.066431 0.381951 -0.71383
2003-03-19 07:36:33 51°13.766 2°55.666 -999 0.066431 0.381951 -0.74754
2003-03-19 07:36:39 51°13.775 2°55.66 -999 0.066535 0.382569 -0.74754
2003-03-19 07:36:44 51°13.784 2°55.654 -999 0.066431 0.381958 -0.71383
2003-03-19 07:36:48 51°13.792 2°55.649 -999 0.066431 0.381958 -0.71383
2003-03-19 07:36:54 51°13.802 2°55.641 -999 0.066431 0.381958 -0.71383
2003-03-19 07:36:59 51°13.81 2°55.635 -999 0.066431 0.381958 -0.71383
2003-03-19 07:37:04 51°13.82 2°55.63 -999 0.066431 0.381964 -0.680121
2003-03-19 07:37:08 51°13.827 2°55.625 -999 0.066431 0.381958 -0.680121
2003-03-19 07:37:14 51°13.838 2°55.618 -999 0.066431 0.381964 -0.71383
2003-03-19 07:37:18 51°13.846 2°55.613 -999 0.066431 0.381958 -0.680121
2003-03-19 07:37:24 51°13.857 2°55.605 -999 0.066431 0.381958 -0.71383
2003-03-19 07:37:28 51°13.864 2°55.6 -999 0.066431 0.381958 -0.71383
2003-03-19 07:37:34 51°13.876 2°55.592 -999 0.066431 0.381964 -0.71383
2003-03-19 07:37:38 51°13.885 2°55.586 -999 0.066431 0.381964 -0.71383
2003-03-19 07:37:44 51°13.897 2°55.577 -999 0.066431 0.381964 -0.71383
2003-03-19 07:37:48 51°13.905 2°55.572 -999 0.066431 0.381964 -0.680121
2003-03-19 07:37:53 51°13.915 2°55.565 -999 0.066431 0.381964 -0.71383
2003-03-19 07:37:58 51°13.925 2°55.557 -999 0.066431 0.381964 -0.71383
2003-03-19 07:38:02 51°13.932 2°55.551 -999 0.066431 0.381964 -0.71383
2003-03-19 07:38:08 51°13.943 2°55.544 -999 0.066431 0.381958 -0.71383
2003-03-19 07:38:13 51°13.952 2°55.538 -999 0.066431 0.381964 -0.680121
2003-03-19 07:38:18 51°13.963 2°55.532 -999 0.066535 0.382582 -0.71383
2003-03-19 07:38:22 51°13.971 2°55.527 -999 0.066535 0.382589 -0.71383
2003-03-19 07:38:28 51°13.983 2°55.519 -999 0.066535 0.382589 -0.71383
2003-03-19 07:38:33 51°13.993 2°55.511 -999 0.066535 0.382589 -0.680121
2003-03-19 07:38:38 51°14.003 2°55.502 -999 0.066431 0.381971 -0.71383
2003-03-19 07:38:42 51°14.011 2°55.496 -999 0.066431 0.381971 -0.71383
2003-03-19 07:38:48 51°14.022 2°55.486 -999 0.066431 0.381958 -0.71383
2003-03-19 07:38:54 51°14.035 2°55.479 -999 0.066431 0.381958 -0.680121
2003-03-19 07:38:59 51°14.045 2°55.473 -999 0.066431 0.381958 -0.680121
2003-03-19 07:39:03 51°14.054 2°55.468 -999 0.066431 0.381958 -0.71383
2003-03-19 07:39:08 51°14.064 2°55.461 -999 0.066535 0.382576 -0.71383
2003-03-19 07:39:14 51°14.076 2°55.452 -999 0.066431 0.381958 -0.71383
2003-03-19 07:39:18 51°14.084 2°55.447 -999 0.066535 0.382576 -0.71383
2003-03-19 07:39:24 51°14.097 2°55.437 -999 0.066431 0.381964 -0.680121
2003-03-19 07:39:28 51°14.105 2°55.431 -999 0.066431 0.381964 -0.680121
2003-03-19 07:39:33 51°14.115 2°55.423 -999 0.066431 0.381971 -0.71383
2003-03-19 07:39:38 51°14.125 2°55.415 -999 0.066535 0.382582 -0.71383
2003-03-19 07:39:42 51°14.133 2°55.409 -999 0.066535 0.382582 -0.680121
2003-03-19 07:39:48 51°14.146 2°55.399 -999 0.066431 0.381964 -0.71383
2003-03-19 07:39:53 51°14.156 2°55.389 -999 0.066431 0.381964 -0.680121
2003-03-19 07:39:58 51°14.166 2°55.38 -999 0.066431 0.381964 -0.680121
2003-03-19 07:40:04 51°14.178 2°55.369 -999 0.066431 0.381958 -0.71383
2003-03-19 07:40:08 51°14.186 2°55.361 -999 0.066535 0.382582 -0.680121
2003-03-19 07:40:14 51°14.199 2°55.346 -999 0.066431 0.381964 -0.71383
2003-03-19 07:40:18 51°14.208 2°55.337 -999 0.066431 0.381964 -0.71383
2003-03-19 07:40:22 51°14.215 2°55.329 -999 0.066431 0.381958 -0.71383
2003-03-19 07:40:28 51°14.226 2°55.315 -999 0.066431 0.381958 -0.71383
2003-03-19 07:40:33 51°14.236 2°55.302 -999 0.066535 0.382576 -0.680121
2003-03-19 07:40:38 51°14.244 2°55.29 -999 0.066431 0.381971 -0.71383
2003-03-19 07:40:42 51°14.25 2°55.281 -999 0.066431 0.381971 -0.680121
2003-03-19 07:40:48 51°14.26 2°55.265 -999 0.066535 0.382582 -0.71383
2003-03-19 07:40:54 51°14.27 2°55.249 -999 0.066535 0.382582 -0.680121
2003-03-19 07:40:58 51°14.276 2°55.238 -999 0.066535 0.382582 -0.680121
2003-03-19 07:41:02 51°14.283 2°55.228 -999 0.066431 0.381964 -0.71383
2003-03-19 07:41:08 51°14.292 2°55.212 -999 0.066535 0.382582 -0.71383
2003-03-19 07:41:14 51°14.301 2°55.195 -999 0.066431 0.381958 -0.680121
2003-03-19 07:41:18 51°14.307 2°55.184 -999 0.066431 0.381964 -0.71383
2003-03-19 07:41:24 51°14.315 2°55.166 -999 0.066431 0.381971 -0.74754
2003-03-19 07:41:28 51°14.321 2°55.155 -999 0.066431 0.381971 -0.74754
2003-03-19 07:41:33 51°14.328 2°55.14 -999 0.066431 0.381964 -0.680121
2003-03-19 07:41:38 51°14.335 2°55.124 -999 0.066431 0.381964 -0.680121
2003-03-19 07:41:44 51°14.343 2°55.105 -999 0.066431 0.381971 -0.680121
2003-03-19 07:41:48 51°14.348 2°55.091 -999 0.066431 0.381958 -0.74754
2003-03-19 07:41:54 51°14.355 2°55.07 -999 0.066431 0.381964 -0.71383
2003-03-19 07:41:58 51°14.359 2°55.055 -999 0.066431 0.381964 -0.71383
2003-03-19 07:42:04 51°14.365 2°55.032 -999 0.066431 0.381958 -0.71383
2003-03-19 07:42:08 51°14.371 2°55.017 -999 0.066431 0.381971 -0.71383
2003-03-19 07:42:13 51°14.377 2°54.998 -999 0.066431 0.381971 -0.71383
2003-03-19 07:42:18 51°14.382 2°54.977 -999 0.066431 0.381971 -0.71383
2003-03-19 07:42:23 51°14.386 2°54.956 -999 0.066535 0.382589 -0.680121
2003-03-19 07:42:29 51°14.391 2°54.928 -999 0.066535 0.382589 -0.680121
2003-03-19 07:42:34 51°14.394 2°54.905 -999 0.066431 0.381964 -0.71383
2003-03-19 07:42:38 51°14.396 2°54.885 -999 0.066535 0.382569 -0.74754
2003-03-19 07:42:44 51°14.397 2°54.856 -999 0.066535 0.382569 -0.680121
2003-03-19 07:42:48 51°14.398 2°54.835 -999 0.066535 0.382576 -0.71383
2003-03-19 07:42:54 51°14.397 2°54.804 -999 0.066535 0.382589 -0.680121
2003-03-19 07:42:58 51°14.396 2°54.783 -999 0.066535 0.382589 -0.680121
2003-03-19 07:43:04 51°14.393 2°54.751 -999 0.066431 0.381978 -0.680121
2003-03-19 07:43:08 51°14.391 2°54.728 -999 0.066535 0.382602 -0.680121
2003-03-19 07:43:13 51°14.389 2°54.7 -999 0.066535 0.382596 -0.680121
2003-03-19 07:43:18 51°14.388 2°54.672 -999 0.066535 0.382589 -0.71383
2003-03-19 07:43:22 51°14.386 2°54.649 -999 0.066535 0.382582 -0.71383
2003-03-19 07:43:28 51°14.383 2°54.615 -999 0.066535 0.382582 -0.71383
2003-03-19 07:43:34 51°14.379 2°54.58 -999 0.066431 0.381964 -0.71383
2003-03-19 07:43:38 51°14.376 2°54.557 11.756446 0.066535 0.382576 -0.680121
2003-03-19 07:43:42 51°14.372 2°54.534 9.938877 0.066535 0.382576 2.353725
2003-03-19 07:43:48 51°14.367 2°54.5 9.289007 0.066327 0.381946 5.45499
2003-03-19 07:43:53 51°14.362 2°54.471 8.994255 0.067055 0.392856 5.859503
2003-03-19 07:43:58 51°14.357 2°54.442 8.994255 0.067055 0.392856 5.859503
2003-03-19 07:44:02 51°14.352 2°54.419 8.749862 1.050717 7.469693 5.185315
2003-03-19 07:44:08 51°14.346 2°54.384 8.857497 2.112086 16.557108 13.511537
2003-03-19 07:44:14 51°14.339 2°54.349 9.337639 2.69107 22.511789 15.803777
2003-03-19 07:44:18 51°14.336 2°54.326 8.651578 3.028539 26.593456 16.275708
2003-03-19 07:44:24 51°14.33 2°54.29 8.521242 3.087188 28.257301 16.073452
2003-03-19 07:44:28 51°14.327 2°54.266 8.521242 3.087188 28.257301 16.073452
2003-03-19 07:44:34 51°14.323 2°54.231 8.510397 3.092563 28.840148 16.241999
2003-03-19 07:44:38 51°14.32 2°54.208 8.178595 3.092567 29.178801 16.511674
2003-03-19 07:44:44 51°14.316 2°54.172 8.183708 3.08678 29.323562 17.489247
2003-03-19 07:44:49 51°14.313 2°54.141 7.759771 3.067306 29.284174 17.86005
2003-03-19 07:44:54 51°14.31 2°54.111 8.041498 3.064781 29.351697 18.534238
2003-03-19 07:44:58 51°14.307 2°54.087 8.041498 3.064781 29.351697 18.534238
2003-03-19 07:45:04 51°14.302 2°54.052 8.085039 3.059413 29.365265 19.444392
2003-03-19 07:45:09 51°14.296 2°54.022 7.597393 3.064573 29.535413 19.747777
2003-03-19 07:45:14 51°14.289 2°53.994 7.608977 3.064152 29.583574 20.421965
2003-03-19 07:45:18 51°14.281 2°53.972 7.885356 3.055521 29.596321 21.028734
2003-03-19 07:45:24 51°14.269 2°53.939 8.131593 3.053627 29.6218 21.905178
2003-03-19 07:45:28 51°14.261 2°53.917 8.131593 3.053627 29.6218 21.905178
2003-03-19 07:45:34 51°14.249 2°53.885 7.97809 3.062155 29.78345 21.972597
2003-03-19 07:45:38 51°14.242 2°53.863 8.245565 3.066261 29.89163 22.714204
2003-03-19 07:45:43 51°14.231 2°53.837 8.338791 3.071315 30.014988 22.747913
2003-03-19 07:45:48 51°14.22 2°53.811 7.838236 3.072052 30.081015 22.511947
2003-03-19 07:45:54 51°14.207 2°53.78 7.703131 3.070895 30.111047 21.871469
2003-03-19 07:45:58 51°14.199 2°53.759 7.703131 3.070895 30.111047 21.871469
2003-03-19 07:46:03 51°14.189 2°53.732 8.16224 3.067842 30.09665 21.365828
2003-03-19 07:46:09 51°14.178 2°53.698 7.972767 3.063737 30.056618 21.129862
2003-03-19 07:46:13 51°14.172 2°53.675 7.952971 3.063842 30.082436 20.489383
2003-03-19 07:46:18 51°14.165 2°53.646 7.771374 3.054052 29.993383 20.421965
2003-03-19 07:46:23 51°14.16 2°53.615 7.697591 3.055316 30.024285 20.556802
2003-03-19 07:46:28 51°14.156 2°53.585 7.697591 3.055316 30.024285 20.556802
2003-03-19 07:46:32 51°14.153 2°53.561 8.014614 3.067106 30.15612 20.489383
2003-03-19 07:46:38 51°14.15 2°53.523 7.892722 3.066895 30.154583 20.051161
2003-03-19 07:46:44 51°14.147 2°53.486 7.368734 3.061737 30.093283 20.051161
2003-03-19 07:46:48 51°14.144 2°53.462 8.462292 3.061105 30.073687 19.950033
2003-03-19 07:46:53 51°14.139 2°53.431 8.024044 3.067 30.112965 19.815195
2003-03-19 07:46:58 51°14.134 2°53.4 8.024044 3.067 30.112965 19.815195
2003-03-19 07:47:04 51°14.126 2°53.364 7.597733 3.071948 30.152414 20.489383
2003-03-19 07:47:09 51°14.118 2°53.334 7.651354 3.07079 30.169858 20.69164
2003-03-19 07:47:14 51°14.108 2°53.306 7.932345 3.071001 30.194692 20.792768
2003-03-19 07:47:18 51°14.1 2°53.284 7.837169 3.078476 30.302362 20.590512
2003-03-19 07:47:24 51°14.087 2°53.251 8.395884 3.074476 30.289804 21.096153
2003-03-19 07:47:28 51°14.078 2°53.228 8.395884 3.074476 30.289804 21.096153
2003-03-19 07:47:33 51°14.068 2°53.2 7.204527 3.069528 30.254807 20.725349
2003-03-19 07:47:38 51°14.058 2°53.172 7.649311 3.080161 30.38662 20.725349
2003-03-19 07:47:44 51°14.045 2°53.139 7.996814 3.080056 30.40143 20.590512
2003-03-19 07:47:48 51°14.037 2°53.116 8.113632 3.07774 30.381477 20.11858
2003-03-19 07:47:54 51°14.024 2°53.082 7.755935 3.075318 30.357334 19.950033
2003-03-19 07:47:58 51°14.015 2°53.06 7.755935 3.075318 30.357334 19.950033
2003-03-19 07:48:02 51°14.006 2°53.037 7.869605 3.070476 30.309046 19.815195
2003-03-19 07:48:08 51°13.993 2°53.004 8.029121 3.07395 30.346196 19.815195
2003-03-19 07:48:14 51°13.979 2°52.971 8.111411 3.072687 30.33241 19.646648
2003-03-19 07:48:18 51°13.971 2°52.949 8.20054 3.069318 30.298685 19.848905
2003-03-19 07:48:24 51°13.957 2°52.914 7.997346 3.07395 30.350752 19.781486
2003-03-19 07:48:28 51°13.949 2°52.891 7.997346 3.07395 30.350752 19.781486
2003-03-19 07:48:32 51°13.941 2°52.868 7.799282 3.078161 30.398239 19.983742
2003-03-19 07:48:38 51°13.93 2°52.833 8.166389 3.074582 30.364485 19.882614
2003-03-19 07:48:42 51°13.922 2°52.808 8.107596 3.076792 30.393187 19.848905
2003-03-19 07:48:48 51°13.912 2°52.772 8.198756 3.077108 30.392831 19.983742
2003-03-19 07:48:54 51°13.901 2°52.735 7.239781 3.070792 30.325391 19.882614
2003-03-19 07:48:58 51°13.893 2°52.712 7.239781 3.070792 30.325391 19.882614
2003-03-19 07:49:03 51°13.884 2°52.682 7.833338 3.076266 30.385157 19.646648
2003-03-19 07:49:08 51°13.874 2°52.653 7.917671 3.07774 30.398206 19.612939
2003-03-19 07:49:13 51°13.862 2°52.625 7.716786 3.075319 30.37101 19.54552
2003-03-19 07:49:18 51°13.851 2°52.596 7.560825 3.071845 30.335364 19.242136
2003-03-19 07:49:23 51°13.839 2°52.569 7.787684 3.079635 30.425752 19.275845
2003-03-19 07:49:28 51°13.828 2°52.54 7.787684 3.079635 30.425752 19.275845
2003-03-19 07:49:34 51°13.815 2°52.506 7.585563 3.076056 30.392748 19.00617
2003-03-19 07:49:38 51°13.806 2°52.483 7.669152 3.073424 30.364764 18.905042
2003-03-19 07:49:44 51°13.794 2°52.448 7.673139 3.07974 30.433759 18.938751
2003-03-19 07:49:48 51°13.786 2°52.424 7.58824 3.080688 30.444873 18.534238
2003-03-19 07:49:54 51°13.775 2°52.387 7.949824 3.078477 30.425292 18.129725
2003-03-19 07:49:58 51°13.768 2°52.363 7.949824 3.078477 30.425292 18.129725
2003-03-19 07:50:04 51°13.757 2°52.326 7.90372 3.070161 30.335202 17.624084
2003-03-19 07:50:08 51°13.749 2°52.303 7.867763 3.081214 30.46054 17.86005
2003-03-19 07:50:14 51°13.737 2°52.268 7.659281 3.076056 30.404168 17.556665
2003-03-19 07:50:18 51°13.729 2°52.245 8.092092 3.076266 30.405707 17.590375
2003-03-19 07:50:23 51°13.718 2°52.217 7.81117 3.078161 30.426413 17.556665
2003-03-19 07:50:29 51°13.706 2°52.182 7.81117 3.078161 30.426413 17.556665
2003-03-19 07:50:34 51°13.696 2°52.153 7.895532 3.073003 30.372334 17.522956
2003-03-19 07:50:38 51°13.687 2°52.13 8.048314 3.071424 30.358124 17.388118
2003-03-19 07:50:44 51°13.675 2°52.095 7.762199 3.078688 30.443605 17.657794
2003-03-19 07:50:48 51°13.666 2°52.072 7.802873 3.080056 30.460857 17.185862
2003-03-19 07:50:54 51°13.654 2°52.037 8.285934 3.079846 30.464663 17.084734
2003-03-19 07:50:59 51°13.643 2°52.008 8.285934 3.079846 30.464663 17.084734
2003-03-19 07:51:04 51°13.632 2°51.98 7.572708 3.086794 30.542956 17.253281
2003-03-19 07:51:08 51°13.623 2°51.957 7.973347 3.083425 30.509928 17.118443
2003-03-19 07:51:13 51°13.612 2°51.928 8.05073 3.084057 30.520665 16.848768
2003-03-19 07:51:18 51°13.601 2°51.9 8.126331 3.084057 30.519899 16.949896
2003-03-19 07:51:23 51°13.59 2°51.871 8.310972 3.084057 30.52143 16.848768
2003-03-19 07:51:29 51°13.577 2°51.837 8.310972 3.084057 30.52143 16.848768
2003-03-19 07:51:34 51°13.567 2°51.808 8.168126 3.07553 30.428147 16.74764
2003-03-19 07:51:38 51°13.559 2°51.785 7.620364 3.083215 30.50992 16.815059
2003-03-19 07:51:44 51°13.546 2°51.75 7.815197 3.087005 30.551387 16.343127
2003-03-19 07:51:48 51°13.538 2°51.726 7.461779 3.083741 30.516444 16.612802
2003-03-19 07:51:54 51°13.526 2°51.692 7.78118 3.089637 30.581722 16.612802
2003-03-19 07:51:59 51°13.515 2°51.663 7.78118 3.089637 30.581722 16.612802
2003-03-19 07:52:04 51°13.505 2°51.635 7.265573 3.084057 30.519134 16.680221
2003-03-19 07:52:08 51°13.497 2°51.612 7.547917 3.085215 30.53257 16.477965
2003-03-19 07:52:14 51°13.485 2°51.577 7.748068 3.090689 30.592477 16.477965
2003-03-19 07:52:18 51°13.477 2°51.553 7.312921 3.083215 30.51145 16.545383
2003-03-19 07:52:23 51°13.466 2°51.524 7.552788 3.090584 30.589023 16.71393
2003-03-19 07:52:29 51°13.454 2°51.489 7.552788 3.090584 30.589023 16.71393
2003-03-19 07:52:34 51°13.444 2°51.46 8.108996 3.086268 30.541791 16.410546
2003-03-19 07:52:38 51°13.436 2°51.437 7.637053 3.090794 30.589026 16.579093
2003-03-19 07:52:44 51°13.424 2°51.402 7.950841 3.090584 30.585955 16.410546
2003-03-19 07:52:48 51°13.416 2°51.378 7.396037 3.088478 30.561384 16.511674
2003-03-19 07:52:54 51°13.403 2°51.343 7.50786 3.093005 30.61015 16.71393
2003-03-19 07:52:58 51°13.395 2°51.32 7.50786 3.093005 30.61015 16.71393
2003-03-19 07:53:04 51°13.383 2°51.285 7.991734 3.097743 30.66123 16.646512
2003-03-19 07:53:08 51°13.374 2°51.263 7.713919 3.089531 30.570603 16.612802
2003-03-19 07:53:13 51°13.364 2°51.235 7.917865 3.088057 30.555245 16.74764
2003-03-19 07:53:18 51°13.353 2°51.206 7.755886 3.094479 30.621673 16.545383
2003-03-19 07:53:23 51°13.343 2°51.177 8.029314 3.098059 30.666993 16.545383
2003-03-19 07:53:29 51°13.33 2°51.142 8.029314 3.098059 30.666993 16.545383
2003-03-19 07:53:34 51°13.321 2°51.113 7.835908 3.092795 30.609381 16.511674
2003-03-19 07:53:38 51°13.312 2°51.089 7.795788 3.095006 30.632808 16.444255
2003-03-19 07:53:44 51°13.3 2°51.054 7.874403 3.095848 30.641258 16.477965
2003-03-19 07:53:48 51°13.292 2°51.031 7.915104 3.097637 30.660078 16.71393
2003-03-19 07:53:54 51°13.28 2°50.996 7.95055 3.096585 30.650092 16.680221
2003-03-19 07:53:59 51°13.27 2°50.967 7.95055 3.096585 30.650092 16.680221
2003-03-19 07:54:04 51°13.26 2°50.938 7.83164 3.097848 30.663151 16.680221
2003-03-19 07:54:08 51°13.252 2°50.915 7.877311 3.094584 30.6282 16.815059
2003-03-19 07:54:13 51°13.242 2°50.885 7.512637 3.090163 30.580581 16.848768
2003-03-19 07:54:18 51°13.231 2°50.856 8.391364 3.089847 30.575592 17.152153
2003-03-19 07:54:23 51°13.221 2°50.827 7.797681 3.094584 30.630503 17.253281
2003-03-19 07:54:29 51°13.208 2°50.793 7.797681 3.094584 30.630503 17.253281
2003-03-19 07:54:34 51°13.198 2°50.763 7.759188 3.094795 30.631272 17.455537
2003-03-19 07:54:38 51°13.19 2°50.74 8.031393 3.093426 30.619365 17.354409
2003-03-19 07:54:44 51°13.178 2°50.705 7.872949 3.096585 30.653935 17.624084
2003-03-19 07:54:48 51°13.17 2°50.682 7.995992 3.093532 30.621285 17.826341
2003-03-19 07:54:54 51°13.157 2°50.646 8.195428 3.096058 30.648941 17.792631
2003-03-19 07:54:58 51°13.149 2°50.623 8.195428 3.096058 30.648941 17.792631
2003-03-19 07:55:04 51°13.137 2°50.588 7.91801 3.093426 30.619365 17.758922
2003-03-19 07:55:08 51°13.128 2°50.565 7.920383 3.100901 30.700419 17.927469
2003-03-19 07:55:14 51°13.116 2°50.53 7.750108 3.099006 30.678134 17.725212
2003-03-19 07:55:18 51°13.108 2°50.507 7.790353 3.095427 30.641258 17.590375
2003-03-19 07:55:24 51°13.096 2°50.471 8.06982 3.096164 30.649325 17.691503
2003-03-19 07:55:28 51°13.087 2°50.448 8.06982 3.096164 30.649325 17.691503
2003-03-19 07:55:34 51°13.075 2°50.413 8.067742 3.089952 30.58211 17.624084
2003-03-19 07:55:38 51°13.066 2°50.389 7.984622 3.097637 30.666228 17.556665
2003-03-19 07:55:42 51°13.058 2°50.366 7.743746 3.095427 30.642027 17.489247
2003-03-19 07:55:48 51°13.045 2°50.331 7.784772 3.095427 30.643564 17.590375
2003-03-19 07:55:54 51°13.033 2°50.296 8.182647 3.096269 30.65509 18.028597
2003-03-19 07:55:59 51°13.023 2°50.267 8.182647 3.096269 30.65509 18.028597
2003-03-19 07:56:04 51°13.013 2°50.238 7.824898 3.095532 30.64779 18.230853
2003-03-19 07:56:08 51°13.005 2°50.214 8.101511 3.097743 30.675842 17.826341
2003-03-19 07:56:14 51°12.992 2°50.179 7.980461 3.090058 30.593236 17.556665
2003-03-19 07:56:18 51°12.984 2°50.155 7.987719 3.091953 30.615517 17.421828
2003-03-19 07:56:22 51°12.975 2°50.132 7.429575 3.086268 30.554817 17.489247
2003-03-19 07:56:28 51°12.963 2°50.098 7.429575 3.086268 30.554817 17.489247
2003-03-19 07:56:34 51°12.95 2°50.063 7.621776 3.091426 30.612058 17.455537
2003-03-19 07:56:38 51°12.941 2°50.039 7.667013 3.091321 30.611673 17.388118
2003-03-19 07:56:42 51°12.933 2°50.015 8.063635 3.081952 30.50834 17.624084
2003-03-19 07:56:48 51°12.92 2°49.98 7.778413 3.086899 30.561731 17.826341
2003-03-19 07:56:54 51°12.908 2°49.944 8.102042 3.082162 30.509879 17.826341
2003-03-19 07:56:58 51°12.899 2°49.92 8.102042 3.082162 30.509879 17.826341
2003-03-19 07:57:04 51°12.887 2°49.884 7.545871 3.091847 30.616668 18.096016
2003-03-19 07:57:08 51°12.879 2°49.86 7.697834 3.082688 30.517171 17.86005
2003-03-19 07:57:14 51°12.866 2°49.825 7.66429 3.085741 30.550588 17.994888
2003-03-19 07:57:18 51°12.858 2°49.801 7.499914 3.091321 30.613209 17.725212
2003-03-19 07:57:24 51°12.845 2°49.765 7.421033 3.089742 30.595151 17.657794
2003-03-19 07:57:28 51°12.837 2°49.742 7.421033 3.089742 30.595151 17.657794
2003-03-19 07:57:34 51°12.825 2°49.706 7.895047 3.082583 30.51755 17.489247
2003-03-19 07:57:38 51°12.816 2°49.682 8.058609 3.085215 30.547125 17.792631
2003-03-19 07:57:44 51°12.804 2°49.647 7.572659 3.085952 30.554426 17.590375
2003-03-19 07:57:48 51°12.796 2°49.623 8.014082 3.082373 30.518308 17.556665
2003-03-19 07:57:54 51°12.783 2°49.587 7.66074 3.084689 30.545195 17.590375
2003-03-19 07:57:58 51°12.775 2°49.563 7.66074 3.084689 30.545195 17.590375
2003-03-19 07:58:02 51°12.767 2°49.539 7.861946 3.087952 30.582462 17.522956
2003-03-19 07:58:08 51°12.755 2°49.503 7.861364 3.082899 30.5279 17.556665
2003-03-19 07:58:13 51°12.744 2°49.473 7.910454 3.0869 30.572469 17.657794
2003-03-19 07:58:18 51°12.733 2°49.443 8.346634 3.087637 30.582074 17.758922
2003-03-19 07:58:24 51°12.721 2°49.407 7.790208 3.087952 30.58323 18.096016
2003-03-19 07:58:29 51°12.711 2°49.377 7.790208 3.087952 30.58323 18.096016
2003-03-19 07:58:34 51°12.7 2°49.347 7.710323 3.084057 30.539812 18.028597
2003-03-19 07:58:38 51°12.691 2°49.323 7.511565 3.081846 30.514843 18.365691
2003-03-19 07:58:44 51°12.679 2°49.288 7.747437 3.086478 30.562488 18.331982
2003-03-19 07:58:48 51°12.67 2°49.264 7.66852 3.080057 30.490662 18.331982
2003-03-19 07:58:54 51°12.658 2°49.228 7.788606 3.082688 30.517936 18.534238
2003-03-19 07:58:58 51°12.649 2°49.205 7.788606 3.082688 30.517936 18.534238
2003-03-19 07:59:02 51°12.641 2°49.181 8.027525 3.078899 30.476459 18.298272
2003-03-19 07:59:08 51°12.629 2°49.145 7.432357 3.085426 30.547897 17.657794
2003-03-19 07:59:13 51°12.618 2°49.115 7.798409 3.084057 30.532916 17.3207
2003-03-19 07:59:18 51°12.608 2°49.086 7.839545 3.084583 30.537912 17.455537
2003-03-19 07:59:24 51°12.596 2°49.05 7.918688 3.086268 30.557883 16.916187
2003-03-19 07:59:28 51°12.587 2°49.026 7.918688 3.086268 30.557883 16.916187
2003-03-19 07:59:34 51°12.575 2°48.99 7.956408 3.083004 30.521393 17.051024
2003-03-19 07:59:38 51°12.567 2°48.967 7.956843 3.080162 30.490284 17.3207
2003-03-19 07:59:44 51°12.555 2°48.93 7.675813 3.083425 30.525236 17.219571
2003-03-19 07:59:48 51°12.546 2°48.907 7.910938 3.085847 30.549441 17.421828
2003-03-19 07:59:54 51°12.534 2°48.871 8.076536 3.085531 30.545218 17.354409
2003-03-19 07:59:58 51°12.525 2°48.847 8.076536 3.085531 30.545218 17.354409
2003-03-19 08:00:02 51°12.517 2°48.823 7.916993 3.087636 30.566731 17.421828
2003-03-19 08:00:08 51°12.505 2°48.787 7.672459 3.081951 30.502983 17.691503
2003-03-19 08:00:13 51°12.495 2°48.758 7.591746 3.083846 30.522954 17.489247
2003-03-19 08:00:18 51°12.485 2°48.728 7.913215 3.089742 30.587476 17.556665
2003-03-19 08:00:24 51°12.472 2°48.692 7.710858 3.082373 30.509122 17.522956
2003-03-19 08:00:28 51°12.464 2°48.669 7.710858 3.082373 30.509122 17.522956
2003-03-19 08:00:34 51°12.452 2°48.633 7.716105 3.084162 30.529473 17.421828
2003-03-19 08:00:38 51°12.443 2°48.609 8.231106 3.085426 30.544832 17.421828
2003-03-19 08:00:44 51°12.431 2°48.574 7.79608 3.08711 30.564802 17.455537
2003-03-19 08:00:48 51°12.422 2°48.551 7.919463 3.088794 30.584777 17.354409
2003-03-19 08:00:54 51°12.41 2°48.516 7.678147 3.085741 30.551354 17.152153
2003-03-19 08:00:58 51°12.401 2°48.492 7.678147 3.085741 30.551354 17.152153
2003-03-19 08:01:03 51°12.391 2°48.463 7.722762 3.089216 30.58862 17.489247
2003-03-19 08:01:08 51°12.38 2°48.434 8.350098 3.085952 30.553659 17.522956
2003-03-19 08:01:13 51°12.37 2°48.404 7.805396 3.097322 30.678157 17.657794
2003-03-19 08:01:18 51°12.36 2°48.375 7.520094 3.099006 30.695837 17.725212
2003-03-19 08:01:24 51°12.347 2°48.34 7.998507 3.100059 30.706598 17.826341
2003-03-19 08:01:28 51°12.339 2°48.315 7.998507 3.100059 30.706598 17.826341
2003-03-19 08:01:34 51°12.326 2°48.28 8.040144 3.100901 30.713512 17.893759
2003-03-19 08:01:38 51°12.318 2°48.257 8.35337 3.10027 30.706593 18.096016
2003-03-19 08:01:43 51°12.307 2°48.228 7.60372 3.102796 30.733499 18.3994
2003-03-19 08:01:49 51°12.295 2°48.193 7.442605 3.09869 30.689298 18.43311
2003-03-19 08:01:54 51°12.285 2°48.163 8.041594 3.104586 30.754647 18.736494
2003-03-19 08:01:58 51°12.276 2°48.14 8.041594 3.104586 30.754647 18.736494
2003-03-19 08:02:04 51°12.264 2°48.104 8.123482 3.104902 30.756564 18.837623
2003-03-19 08:02:09 51°12.253 2°48.075 8.083107 3.105323 30.761949 18.534238
2003-03-19 08:02:14 51°12.243 2°48.045 7.808938 3.105428 30.762331 18.567947
2003-03-19 08:02:18 51°12.234 2°48.021 7.606251 3.106481 30.773865 18.635366
2003-03-19 08:02:23 51°12.224 2°47.992 7.847449 3.106797 30.776553 18.365691
2003-03-19 08:02:28 51°12.214 2°47.962 7.847449 3.106797 30.776553 18.365691
2003-03-19 08:02:34 51°12.202 2°47.926 7.411173 3.102586 30.72888 18.466819
2003-03-19 08:02:38 51°12.194 2°47.902 7.533544 3.107428 30.781157 18.567947
2003-03-19 08:02:42 51°12.186 2°47.878 8.132317 3.108376 30.789221 18.466819
2003-03-19 08:02:48 51°12.173 2°47.842 8.170828 3.108902 30.794988 18.298272
2003-03-19 08:02:54 51°12.161 2°47.806 8.053002 3.109534 30.801135 18.365691
2003-03-19 08:02:58 51°12.152 2°47.782 8.053002 3.109534 30.801135 18.365691
2003-03-19 08:03:04 51°12.14 2°47.746 8.174977 3.110587 30.812669 18.365691
2003-03-19 08:03:09 51°12.129 2°47.716 7.70041 3.110903 30.814584 18.365691
2003-03-19 08:03:14 51°12.119 2°47.686 7.620559 3.11185 30.824191 18.635366
2003-03-19 08:03:18 51°12.111 2°47.662 7.785306 3.112587 30.830719 18.500529
2003-03-19 08:03:22 51°12.102 2°47.638 8.181779 3.113535 30.840326 18.837623
2003-03-19 08:03:28 51°12.09 2°47.602 8.181779 3.113535 30.840326 18.837623
2003-03-19 08:03:34 51°12.078 2°47.566 7.86786 3.113745 30.841086 18.669076
2003-03-19 08:03:38 51°12.069 2°47.542 7.715862 3.114903 30.850679 18.871332
2003-03-19 08:03:44 51°12.057 2°47.506 7.71285 3.112692 30.827234 19.00617
2003-03-19 08:03:49 51°12.046 2°47.476 7.798263 3.111429 30.812623 18.837623
2003-03-19 08:03:54 51°12.036 2°47.446 7.675862 3.112166 30.818377 19.073589
2003-03-19 08:03:58 51°12.027 2°47.422 7.675862 3.112166 30.818377 19.073589
2003-03-19 08:04:03 51°12.017 2°47.392 8.033908 3.117325 30.873337 18.871332
2003-03-19 08:04:09 51°12.005 2°47.356 7.839157 3.117851 30.877555 19.275845
2003-03-19 08:04:14 51°11.994 2°47.325 8.03647 3.118062 30.876766 18.871332
2003-03-19 08:04:18 51°11.986 2°47.301 8.19456 3.120483 30.900967 19.039879
2003-03-19 08:04:24 51°11.974 2°47.265 7.842746 3.120588 30.901345 19.376973
2003-03-19 08:04:29 51°11.963 2°47.235 7.842746 3.120588 30.901345 19.376973
2003-03-19 08:04:34 51°11.953 2°47.205 7.881285 3.121325 30.908643 19.511811
2003-03-19 08:04:38 51°11.945 2°47.181 8.196586 3.122378 30.919401 19.714067
2003-03-19 08:04:44 51°11.932 2°47.145 7.803843 3.118693 30.876719 19.646648
2003-03-19 08:04:49 51°11.922 2°47.115 7.566523 3.123747 30.932068 19.882614
2003-03-19 08:04:54 51°11.911 2°47.085 7.766762 3.124378 30.938212 19.747777
2003-03-19 08:04:58 51°11.903 2°47.061 7.766762 3.124378 30.938212 19.747777
2003-03-19 08:05:02 51°11.895 2°47.037 7.92697 3.12501 30.942805 20.219708
2003-03-19 08:05:08 51°11.882 2°47.001 8.007988 3.125221 30.945112 19.882614
2003-03-19 08:05:14 51°11.87 2°46.965 8.115081 3.126484 30.958175 20.759059
2003-03-19 08:05:18 51°11.862 2°46.941 7.772491 3.123641 30.927039 20.11858
2003-03-19 08:05:23 51°11.852 2°46.911 7.973928 3.128168 30.975075 20.826477
2003-03-19 08:05:29 51°11.841 2°46.874 7.973928 3.128168 30.975075 20.826477
2003-03-19 08:05:33 51°11.833 2°46.85 7.697445 3.128695 30.980066 20.860187
2003-03-19 08:05:38 51°11.823 2°46.819 7.493917 3.126379 30.953144 21.062443
2003-03-19 08:05:44 51°11.812 2°46.782 8.014227 3.130064 30.991953 21.129862
2003-03-19 08:05:48 51°11.804 2°46.758 8.089774 3.131222 31.004639 21.197281
2003-03-19 08:05:54 51°11.792 2°46.722 8.25101 3.131853 31.010782 21.2647
2003-03-19 08:05:58 51°11.784 2°46.697 8.25101 3.131853 31.010782 21.2647
2003-03-19 08:06:02 51°11.777 2°46.673 8.015484 3.13238 31.013441 21.466956
2003-03-19 08:06:08 51°11.765 2°46.636 8.328541 3.129537 30.982306 21.635503
2003-03-19 08:06:14 51°11.753 2°46.6 7.978235 3.134275 31.0342 21.905178
2003-03-19 08:06:18 51°11.745 2°46.575 8.217416 3.135117 31.042649 21.972597
2003-03-19 08:06:24 51°11.734 2°46.539 7.739035 3.135959 31.051099 22.141144
2003-03-19 08:06:29 51°11.724 2°46.508 7.739035 3.135959 31.051099 22.141144
2003-03-19 08:06:33 51°11.717 2°46.484 7.782102 3.135222 31.043025 22.511947
2003-03-19 08:06:38 51°11.707 2°46.453 8.303655 3.13617 31.052628 22.680494
2003-03-19 08:06:44 51°11.696 2°46.417 7.589263 3.13417 31.030715 22.815332
2003-03-19 08:06:48 51°11.688 2°46.392 7.990622 3.138065 31.072611 22.91646
2003-03-19 08:06:53 51°11.678 2°46.362 7.715717 3.136591 31.055685 23.051298
2003-03-19 08:06:58 51°11.668 2°46.332 7.715717 3.136591 31.055685 23.051298
2003-03-19 08:07:02 51°11.661 2°46.307 7.833629 3.139644 31.088356 22.95017
2003-03-19 08:07:09 51°11.647 2°46.264 8.214957 3.140592 31.097179 22.91646
2003-03-19 08:07:13 51°11.639 2°46.24 8.272978 3.14175 31.107531 23.422101
2003-03-19 08:07:18 51°11.629 2°46.209 8.193113 3.142803 31.116728 23.455811
2003-03-19 08:07:24 51°11.618 2°46.173 7.644593 3.143961 31.127077 23.927742
2003-03-19 08:07:29 51°11.608 2°46.143 7.644593 3.143961 31.127077 23.927742
2003-03-19 08:07:34 51°11.598 2°46.112 8.3206 3.144909 31.135119 23.860324
2003-03-19 08:07:38 51°11.59 2°46.088 7.965314 3.146698 31.153947 23.826614
2003-03-19 08:07:42 51°11.583 2°46.063 8.124786 3.144382 31.127015 24.231127
2003-03-19 08:07:48 51°11.571 2°46.027 7.771472 3.148699 31.171961 24.231127
2003-03-19 08:07:54 51°11.56 2°45.99 8.253901 3.146804 31.151981 24.433383
2003-03-19 08:07:58 51°11.552 2°45.966 8.253901 3.146804 31.151981 24.433383
2003-03-19 08:08:04 51°11.541 2°45.93 8.254383 3.146804 31.149642 24.871606
2003-03-19 08:08:09 51°11.531 2°45.899 7.659962 3.145645 31.133839 25.107571
2003-03-19 08:08:14 51°11.521 2°45.869 8.021529 3.149436 31.173012 25.276118
2003-03-19 08:08:18 51°11.514 2°45.845 7.906772 3.154068 31.221414 25.309828
2003-03-19 08:08:22 51°11.506 2°45.821 7.948372 3.154911 31.226734 25.512084
2003-03-19 08:08:29 51°11.492 2°45.778 7.948372 3.154911 31.226734 25.512084
2003-03-19 08:08:34 51°11.483 2°45.748 7.551765 3.156385 31.241316 25.950306
2003-03-19 08:08:38 51°11.475 2°45.724 7.992508 3.158806 31.266279 26.253691
2003-03-19 08:08:43 51°11.466 2°45.693 7.955439 3.159754 31.272747 26.523366
2003-03-19 08:08:49 51°11.454 2°45.657 7.640361 3.15649 31.234655 26.927879
2003-03-19 08:08:54 51°11.444 2°45.627 8.475834 3.163018 31.305369 26.995298
2003-03-19 08:08:58 51°11.437 2°45.602 8.475834 3.163018 31.305369 26.995298
2003-03-19 08:09:04 51°11.425 2°45.566 7.603964 3.158069 31.249605 27.703195
2003-03-19 08:09:09 51°11.416 2°45.536 8.045413 3.161649 31.287245 28.073999
2003-03-19 08:09:14 51°11.406 2°45.505 8.005666 3.166282 31.335638 28.141418
2003-03-19 08:09:18 51°11.399 2°45.48 7.649019 3.167545 31.345559 28.478512
2003-03-19 08:09:22 51°11.391 2°45.456 7.692341 3.166387 31.331306 28.849315
2003-03-19 08:09:28 51°11.38 2°45.42 7.692341 3.166387 31.331306 28.849315
2003-03-19 08:09:33 51°11.37 2°45.39 7.971605 3.170177 31.369685 29.456084
2003-03-19 08:09:38 51°11.361 2°45.36 7.733935 3.171862 31.385783 29.489794
2003-03-19 08:09:44 51°11.349 2°45.323 7.536029 3.173336 31.401929 29.287537
2003-03-19 08:09:48 51°11.342 2°45.299 8.014856 3.174494 31.41226 29.590922
2003-03-19 08:09:53 51°11.332 2°45.269 8.017999 3.174389 31.408751 29.725759
2003-03-19 08:09:58 51°11.322 2°45.239 8.017999 3.174389 31.408751 29.725759
2003-03-19 08:10:02 51°11.315 2°45.215 8.138737 3.172599 31.387578 29.860597
2003-03-19 08:10:08 51°11.304 2°45.179 7.983316 3.177337 31.437899 30.298819
2003-03-19 08:10:13 51°11.294 2°45.148 7.826159 3.178601 31.451738 30.568494
2003-03-19 08:10:19 51°11.283 2°45.113 8.380113 3.179022 31.453993 30.501076
2003-03-19 08:10:24 51°11.274 2°45.082 7.987235 3.179232 31.455514 30.871879
2003-03-19 08:10:29 51°11.264 2°45.053 7.987235 3.179232 31.455514 30.871879
2003-03-19 08:10:34 51°11.254 2°45.022 8.307987 3.17839 31.444716 30.703332
2003-03-19 08:10:38 51°11.247 2°44.999 8.150996 3.182181 31.483086 31.006717
2003-03-19 08:10:44 51°11.235 2°44.962 8.390162 3.183444 31.494564 31.37752
2003-03-19 08:10:49 51°11.226 2°44.932 8.114212 3.185339 31.514535 31.748324
2003-03-19 08:10:54 51°11.217 2°44.902 8.354909 3.186498 31.524859 31.579777
2003-03-19 08:10:58 51°11.209 2°44.878 8.354909 3.186498 31.524859 31.579777
2003-03-19 08:11:04 51°11.198 2°44.843 8.03821 3.183023 31.483658 31.748324
2003-03-19 08:11:08 51°11.19 2°44.819 8.315449 3.188604 31.543985 31.849452
2003-03-19 08:11:14 51°11.179 2°44.783 8.434766 3.189656 31.553153 31.815742
2003-03-19 08:11:19 51°11.169 2°44.753 8.199045 3.190393 31.560437 31.647195
2003-03-19 08:11:24 51°11.16 2°44.723 7.965023 3.191446 31.569604 31.579777
2003-03-19 08:11:29 51°11.151 2°44.693 7.965023 3.191446 31.569604 31.579777
2003-03-19 08:11:34 51°11.142 2°44.663 8.320263 3.192499 31.581136 31.242683
2003-03-19 08:11:38 51°11.134 2°44.639 8.477755 3.193131 31.585689 31.444939
2003-03-19 08:11:44 51°11.123 2°44.604 8.125944 3.193974 31.595704 31.343811
2003-03-19 08:11:49 51°11.113 2°44.574 8.046525 3.194605 31.601046 31.546067
2003-03-19 08:11:54 51°11.104 2°44.544 8.045752 3.194711 31.60141 31.613486
2003-03-19 08:11:58 51°11.096 2°44.52 8.045752 3.194711 31.60141 31.613486
2003-03-19 08:12:04 51°11.085 2°44.484 8.441348 3.191236 31.56178 31.849452
2003-03-19 08:12:08 51°11.078 2°44.46 8.087938 3.195342 31.606751 31.680905
2003-03-19 08:12:14 51°11.067 2°44.425 7.732817 3.19808 31.634366 31.714614
2003-03-19 08:12:19 51°11.058 2°44.395 8.171504 3.192815 31.57671 32.152836
2003-03-19 08:12:24 51°11.048 2°44.365 8.25154 3.199133 31.644319 32.287674
2003-03-19 08:12:29 51°11.039 2°44.336 8.25154 3.199133 31.644319 32.287674
2003-03-19 08:12:34 51°11.03 2°44.306 8.294314 3.199659 31.648505 32.591059
2003-03-19 08:12:38 51°11.022 2°44.283 8.097695 3.19987 31.650812 32.388802
2003-03-19 08:12:44 51°11.01 2°44.247 7.942804 3.201344 31.664586 32.48993
2003-03-19 08:12:49 51°11.001 2°44.218 8.218862 3.195763 31.602683 32.725896
2003-03-19 08:12:54 51°10.992 2°44.188 7.864127 3.201028 31.659546 32.827024
2003-03-19 08:12:58 51°10.984 2°44.165 7.864127 3.201028 31.659546 32.827024
2003-03-19 08:13:04 51°10.973 2°44.129 7.986074 3.197027 31.613362 33.534922
2003-03-19 08:13:09 51°10.964 2°44.099 7.910793 3.200081 31.644428 33.501212
2003-03-19 08:13:14 51°10.955 2°44.07 7.871786 3.201028 31.654804 33.534922
2003-03-19 08:13:18 51°10.947 2°44.046 7.476509 3.203555 31.680897 33.973144
2003-03-19 08:13:24 51°10.936 2°44.01 7.756372 3.206714 31.713909 34.276529
2003-03-19 08:13:29 51°10.927 2°43.981 7.756372 3.206714 31.713909 34.276529
2003-03-19 08:13:34 51°10.919 2°43.952 8.152589 3.204714 31.688836 34.040563
2003-03-19 08:13:38 51°10.911 2°43.928 7.719021 3.201449 31.650727 34.411366
2003-03-19 08:13:44 51°10.9 2°43.893 7.760014 3.20861 31.727542 34.411366
2003-03-19 08:13:49 51°10.891 2°43.863 7.601725 3.209347 31.734029 35.018136
2003-03-19 08:13:54 51°10.882 2°43.834 8.198611 3.210189 31.74167 35.827161
2003-03-19 08:13:58 51°10.875 2°43.81 8.198611 3.210189 31.74167 35.827161
2003-03-19 08:14:04 51°10.864 2°43.776 7.56438 3.210716 31.745059 35.759742
2003-03-19 08:14:08 51°10.856 2°43.752 7.804523 3.209978 31.73778 36.063127
2003-03-19 08:14:14 51°10.845 2°43.718 8.162819 3.211874 31.756158 35.523777
2003-03-19 08:14:18 51°10.837 2°43.694 7.845752 3.206293 31.694268 35.995708
2003-03-19 08:14:24 51°10.825 2°43.66 8.005715 3.213348 31.769923 36.366512
2003-03-19 08:14:29 51°10.816 2°43.631 8.005715 3.213348 31.769923 36.366512
2003-03-19 08:14:34 51°10.806 2°43.602 7.730243 3.213664 31.771797 36.43393
2003-03-19 08:14:38 51°10.798 2°43.579 8.129565 3.21419 31.778354 36.400221
2003-03-19 08:14:44 51°10.788 2°43.543 7.709011 3.214822 31.784479 36.501349
2003-03-19 08:14:49 51°10.779 2°43.514 7.535298 3.214296 31.777922 36.602477
2003-03-19 08:14:54 51°10.77 2°43.485 8.135793 3.209347 31.722158 36.501349
2003-03-19 08:14:58 51°10.763 2°43.461 8.135793 3.209347 31.722158 36.501349
2003-03-19 08:15:04 51°10.754 2°43.426 7.858213 3.214611 31.77821 36.568768
2003-03-19 08:15:08 51°10.747 2°43.403 7.760256 3.21756 31.807319 37.0407
2003-03-19 08:15:14 51°10.737 2°43.368 7.699535 3.217665 31.808472 36.838443
2003-03-19 08:15:18 51°10.73 2°43.344 7.78084 3.21577 31.785343 36.939571
2003-03-19 08:15:24 51°10.719 2°43.31 8.295517 3.212505 31.747238 36.905862
2003-03-19 08:15:29 51°10.71 2°43.281 8.295517 3.212505 31.747238 36.905862
2003-03-19 08:15:34 51°10.7 2°43.252 7.943336 3.21756 31.801768 37.58005
2003-03-19 08:15:39 51°10.691 2°43.223 7.505861 3.218718 31.812862 37.748597
2003-03-19 08:15:44 51°10.682 2°43.194 7.864806 3.220087 31.82626 38.186819
2003-03-19 08:15:49 51°10.674 2°43.165 7.945902 3.218297 31.807458 37.950853
2003-03-19 08:15:54 51°10.666 2°43.136 8.22402 3.220824 31.834329 38.051982
2003-03-19 08:15:58 51°10.66 2°43.112 8.22402 3.220824 31.834329 38.051982
2003-03-19 08:16:04 51°10.656 2°43.074 7.911519 3.220403 31.828925 38.085691
2003-03-19 08:16:09 51°10.656 2°43.042 7.995653 3.218192 31.803134 38.321657
2003-03-19 08:16:14 51°10.657 2°43.011 8.131062 3.216612 31.785055 38.254238
2003-03-19 08:16:18 51°10.658 2°42.986 7.80001 3.223983 31.864943 38.793589
2003-03-19 08:16:24 51°10.661 2°42.949 7.680286 3.224931 31.871346 39.164392
2003-03-19 08:16:29 51°10.662 2°42.918 7.680286 3.224931 31.871346 39.164392
2003-03-19 08:16:34 51°10.663 2°42.886 7.918204 3.224931 31.868963 39.029554
2003-03-19 08:16:38 51°10.663 2°42.861 7.758606 3.225457 31.87155 39.535195
2003-03-19 08:16:44 51°10.663 2°42.822 8.553479 3.225984 31.869371 40.209383
2003-03-19 08:16:49 51°10.663 2°42.789 7.608442 3.226826 31.874619 41.153247
2003-03-19 08:16:54 51°10.662 2°42.757 7.846189 3.227774 31.889755 40.782443
2003-03-19 08:16:58 51°10.661 2°42.731 7.846189 3.227774 31.889755 40.782443
2003-03-19 08:17:04 51°10.659 2°42.692 7.805396 3.228722 31.902511 41.018409
2003-03-19 08:17:09 51°10.656 2°42.66 7.931134 3.22988 31.915984 41.456631
2003-03-19 08:17:14 51°10.653 2°42.628 8.246625 3.229775 31.913241 41.389212
2003-03-19 08:17:18 51°10.65 2°42.602 7.695647 3.230301 31.919004 41.861144
2003-03-19 08:17:24 51°10.644 2°42.563 8.012776 3.230512 31.921309 41.760016
2003-03-19 08:17:29 51°10.639 2°42.532 8.012776 3.230512 31.921309 41.760016
2003-03-19 08:17:34 51°10.631 2°42.501 8.171118 3.230933 31.924329 41.658888
2003-03-19 08:17:38 51°10.625 2°42.476 8.015388 3.232512 31.93764 41.928563
2003-03-19 08:17:44 51°10.614 2°42.441 7.820533 3.233144 31.946147 42.501623
2003-03-19 08:17:49 51°10.604 2°42.412 8.297877 3.233987 31.951388 42.198238
2003-03-19 08:17:54 51°10.593 2°42.385 8.06291 3.234724 31.959456 42.366785
2003-03-19 08:17:58 51°10.583 2°42.363 8.06291 3.234724 31.959456 42.366785
2003-03-19 08:18:04 51°10.568 2°42.332 7.946145 3.235987 31.973287 41.995982
2003-03-19 08:18:09 51°10.555 2°42.307 7.67275 3.23683 31.980915 42.299366
2003-03-19 08:18:14 51°10.541 2°42.282 7.710566 3.237778 31.989695 42.939845
2003-03-19 08:18:18 51°10.53 2°42.264 7.67275 3.238409 31.996611 43.24323
2003-03-19 08:18:24 51°10.512 2°42.236 7.515318 3.239568 32.006102 43.614033
2003-03-19 08:18:29 51°10.498 2°42.213 7.515318 3.239568 32.006102 43.614033
2003-03-19 08:18:34 51°10.485 2°42.188 7.55839 3.240726 32.017186 43.78258
2003-03-19 08:18:38 51°10.474 2°42.168 7.687918 3.241253 32.020557 44.119674
2003-03-19 08:18:44 51°10.46 2°42.137 7.448314 3.242095 32.02898 43.78258
2003-03-19 08:18:49 51°10.448 2°42.11 7.690106 3.242937 32.036605 44.726443
2003-03-19 08:18:54 51°10.437 2°42.083 7.692633 3.244096 32.04689 45.063537
2003-03-19 08:18:58 51°10.429 2°42.06 7.692633 3.244096 32.04689 45.063537
2003-03-19 08:19:04 51°10.418 2°42.027 7.690883 3.244622 32.047866 45.130956
2003-03-19 08:19:09 51°10.409 2°41.999 8.172806 3.245359 32.051146 45.771435
2003-03-19 08:19:14 51°10.4 2°41.97 7.73 3.245886 32.052918 47.456905
2003-03-19 08:19:19 51°10.39 2°41.942 8.131834 3.247149 32.062755 48.232221
2003-03-19 08:19:24 51°10.38 2°41.914 8.208111 3.247992 32.069578 49.479469
2003-03-19 08:19:29 51°10.371 2°41.886 8.208111 3.247992 32.069578 49.479469
2003-03-19 08:19:34 51°10.36 2°41.859 7.973347 3.249256 32.083403 49.681725
2003-03-19 08:19:39 51°10.351 2°41.831 7.695938 3.249782 32.085172 51.164939
2003-03-19 08:19:44 51°10.34 2°41.804 8.215825 3.25094 32.095449 50.827845
2003-03-19 08:19:49 51°10.33 2°41.776 7.782879 3.252099 32.108121 51.400905
2003-03-19 08:19:54 51°10.319 2°41.749 7.934185 3.252941 32.119734 51.737999
2003-03-19 08:19:58 51°10.311 2°41.727 7.934185 3.252941 32.119734 51.737999
2003-03-19 08:20:04 51°10.298 2°41.695 8.296143 3.252941 32.118935 52.445896
2003-03-19 08:20:08 51°10.29 2°41.673 8.053727 3.253468 32.126294 52.78299
2003-03-19 08:20:14 51°10.277 2°41.641 8.252407 3.253573 32.125048 53.457178
2003-03-19 08:20:18 51°10.268 2°41.619 8.213656 3.253889 32.126107 54.097657
2003-03-19 08:20:24 51°10.255 2°41.587 7.839351 3.254626 32.134971 54.434751
2003-03-19 08:20:29 51°10.245 2°41.559 7.839351 3.254626 32.134971 54.434751
2003-03-19 08:20:34 51°10.235 2°41.531 7.897228 3.254731 32.136123 55.681999
2003-03-19 08:20:38 51°10.228 2°41.509 7.854044 3.254626 32.135771 55.715708
2003-03-19 08:20:44 51°10.217 2°41.475 7.85894 3.254731 32.136923 56.221349
2003-03-19 08:20:49 51°10.208 2°41.447 8.487261 3.254942 32.139227 56.558443
2003-03-19 08:20:54 51°10.199 2°41.418 7.852492 3.254837 32.137275 56.019093
2003-03-19 08:20:58 51°10.192 2°41.396 7.852492 3.254837 32.137275 56.019093
2003-03-19 08:21:04 51°10.18 2°41.362 7.89902 3.25431 32.131515 56.389896
2003-03-19 08:21:09 51°10.172 2°41.333 7.659621 3.2541 32.127613 56.457315
2003-03-19 08:21:14 51°10.162 2°41.305 8.01384 3.254205 32.129564 56.255059
2003-03-19 08:21:19 51°10.152 2°41.278 7.734663 3.253994 32.12726 57.434888
2003-03-19 08:21:24 51°10.143 2°41.25 7.776277 3.254416 32.133466 57.569725
2003-03-19 08:21:29 51°10.133 2°41.223 7.776277 3.254416 32.133466 57.569725
2003-03-19 08:21:34 51°10.123 2°41.194 8.252841 3.254205 32.131162 57.603435
2003-03-19 08:21:38 51°10.115 2°41.172 7.898003 3.25431 32.130716 58.311332
2003-03-19 08:21:44 51°10.103 2°41.139 7.377576 3.254521 32.132221 58.850683
2003-03-19 08:21:48 51°10.094 2°41.118 7.815002 3.255363 32.141437 58.176494
2003-03-19 08:21:54 51°10.082 2°41.086 7.875179 3.254626 32.13657 57.87311
2003-03-19 08:21:58 51°10.073 2°41.065 7.875179 3.254626 32.13657 57.87311
2003-03-19 08:22:04 51°10.06 2°41.033 8.172034 3.255047 32.140379 57.569725
2003-03-19 08:22:09 51°10.049 2°41.007 7.775841 3.254837 32.138075 57.30005
2003-03-19 08:22:14 51°10.039 2°40.98 7.735003 3.255153 32.142331 57.637144
2003-03-19 08:22:18 51°10.031 2°40.958 7.892431 3.255679 32.147292 58.614717
2003-03-19 08:22:24 51°10.018 2°40.926 7.76618 3.255363 32.143836 58.277623
2003-03-19 08:22:29 51°10.009 2°40.898 7.76618 3.255363 32.143836 58.277623
2003-03-19 08:22:34 51°9.998 2°40.871 8.444375 3.255258 32.145082 57.670853
2003-03-19 08:22:38 51°9.991 2°40.848 7.615206 3.254942 32.140826 57.670853
2003-03-19 08:22:44 51°9.979 2°40.815 7.735975 3.254521 32.136217 57.771982
2003-03-19 08:22:49 51°9.97 2°40.787 7.857049 3.254626 32.13657 57.502306
2003-03-19 08:22:54 51°9.961 2°40.759 7.94261 3.254521 32.137016 57.468597
2003-03-19 08:22:58 51°9.954 2°40.737 7.94261 3.254521 32.137016 57.468597
2003-03-19 08:23:04 51°9.944 2°40.703 7.816409 3.254416 32.136664 57.940529
2003-03-19 08:23:08 51°9.937 2°40.68 8.056675 3.254626 32.138968 58.007947
2003-03-19 08:23:14 51°9.927 2°40.645 8.136951 3.254942 32.141625 58.210204
2003-03-19 08:23:18 51°9.921 2°40.622 8.174784 3.255153 32.141531 58.682136
2003-03-19 08:23:24 51°9.911 2°40.587 8.019837 3.255469 32.142589 59.861965
2003-03-19 08:23:28 51°9.904 2°40.564 8.019837 3.255469 32.142589 59.861965
2003-03-19 08:23:34 51°9.895 2°40.529 8.138978 3.255785 32.145246 60.67099
2003-03-19 08:23:38 51°9.888 2°40.506 8.099048 3.256627 32.153664 61.24405
2003-03-19 08:23:44 51°9.878 2°40.472 7.899989 3.257259 32.161376 60.940665
2003-03-19 08:23:48 51°9.872 2°40.449 8.064118 3.25768 32.164385 62.019366
2003-03-19 08:23:54 51°9.861 2°40.414 8.299851 3.257996 32.167842 62.187913
2003-03-19 08:23:58 51°9.854 2°40.392 8.299851 3.257996 32.167842 62.187913
2003-03-19 08:24:04 51°9.843 2°40.359 8.024092 3.258733 32.175107 63.098067
2003-03-19 08:24:09 51°9.833 2°40.331 8.342689 3.258628 32.173154 63.974512
2003-03-19 08:24:14 51°9.823 2°40.304 8.066824 3.259786 32.18823 64.918375
2003-03-19 08:24:18 51°9.815 2°40.282 8.145012 3.260313 32.19239 66.098204
2003-03-19 08:24:24 51°9.803 2°40.249 8.383286 3.260313 32.189188 65.659982
2003-03-19 08:24:28 51°9.795 2°40.227 8.383286 3.260313 32.189188 65.659982
2003-03-19 08:24:34 51°9.783 2°40.194 7.829749 3.261155 32.198405 66.233042
2003-03-19 08:24:38 51°9.775 2°40.173 8.069965 3.261366 32.20151 66.199332
2003-03-19 08:24:44 51°9.763 2°40.139 8.151527 3.261787 32.205319 66.839811
2003-03-19 08:24:49 51°9.754 2°40.111 7.71251 3.262103 32.208775 67.042067
2003-03-19 08:24:54 51°9.744 2°40.084 8.067307 3.262629 32.211333 67.44658
2003-03-19 08:24:58 51°9.737 2°40.061 8.067307 3.262629 32.211333 67.44658
2003-03-19 08:25:04 51°9.726 2°40.028 7.83746 3.26284 32.21604 67.176905
2003-03-19 08:25:08 51°9.719 2°40.005 7.627955 3.26263 32.212134 66.90723
2003-03-19 08:25:14 51°9.708 2°39.971 7.986993 3.263051 32.215941 67.278033
2003-03-19 08:25:19 51°9.699 2°39.943 7.866939 3.263261 32.215843 66.536426
2003-03-19 08:25:24 51°9.691 2°39.914 7.789868 3.263051 32.214339 66.839811
2003-03-19 08:25:30 51°9.681 2°39.88 7.789868 3.263051 32.214339 66.839811
2003-03-19 08:25:34 51°9.674 2°39.857 8.181924 3.263051 32.213538 66.671264
2003-03-19 08:25:38 51°9.667 2°39.834 7.745591 3.26284 32.211234 65.289178
2003-03-19 08:25:44 51°9.658 2°39.799 7.98738 3.262735 32.211684 65.491435
2003-03-19 08:25:49 51°9.649 2°39.771 7.983848 3.262735 32.211684 64.850956
2003-03-19 08:25:54 51°9.641 2°39.742 8.536211 3.262103 32.205572 64.918375
2003-03-19 08:25:58 51°9.634 2°39.719 8.536211 3.262103 32.205572 64.918375
2003-03-19 08:26:04 51°9.624 2°39.685 8.179994 3.261892 32.203268 64.817247
2003-03-19 08:26:08 51°9.617 2°39.662 7.913602 3.261576 32.201413 65.592563
2003-03-19 08:26:14 51°9.606 2°39.628 7.546163 3.261366 32.199108 66.536426
2003-03-19 08:26:18 51°9.599 2°39.606 7.826014 3.26105 32.195652 66.839811
2003-03-19 08:26:24 51°9.588 2°39.571 8.183612 3.260734 32.192196 67.311742
2003-03-19 08:26:29 51°9.579 2°39.543 8.183612 3.260734 32.192196 67.311742
2003-03-19 08:26:34 51°9.57 2°39.515 7.506349 3.260523 32.190692 67.648836
2003-03-19 08:26:38 51°9.563 2°39.492 7.78351 3.259997 32.186532 68.390443
2003-03-19 08:26:44 51°9.552 2°39.458 7.825238 3.259786 32.182627 68.491571
2003-03-19 08:26:49 51°9.544 2°39.429 7.706144 3.259576 32.180323 68.188187
2003-03-19 08:26:54 51°9.536 2°39.401 7.985687 3.25926 32.176867 68.390443
2003-03-19 08:26:58 51°9.529 2°39.378 7.985687 3.25926 32.176867 68.390443
2003-03-19 08:27:04 51°9.519 2°39.343 8.264452 3.258733 32.170306 68.154477
2003-03-19 08:27:08 51°9.513 2°39.32 8.184866 3.258522 32.169602 68.154477
2003-03-19 08:27:14 51°9.503 2°39.286 7.986654 3.258207 32.166146 68.120768
2003-03-19 08:27:18 51°9.496 2°39.263 8.190268 3.258101 32.163395 68.154477
2003-03-19 08:27:24 51°9.486 2°39.229 7.717174 3.257891 32.16189 68.120768
2003-03-19 08:27:29 51°9.477 2°39.2 7.717174 3.257891 32.16189 68.120768
2003-03-19 08:27:34 51°9.468 2°39.172 8.194175 3.257259 32.15338 68.087059
2003-03-19 08:27:38 51°9.46 2°39.15 7.91801 3.256943 32.148325 68.087059
2003-03-19 08:27:44 51°9.448 2°39.117 7.999862 3.256943 32.149125 68.120768
2003-03-19 08:27:49 51°9.439 2°39.088 8.358565 3.2561 32.138312 68.087059
2003-03-19 08:27:54 51°9.429 2°39.061 8.202758 3.2561 32.136714 68.120768
2003-03-19 08:27:58 51°9.423 2°39.039 8.202758 3.2561 32.136714 68.120768
2003-03-19 08:28:04 51°9.412 2°39.005 8.402855 3.2561 32.134317 68.087059
2003-03-19 08:28:08 51°9.405 2°38.982 8.250432 3.255468 32.125811 68.120768
2003-03-19 08:28:14 51°9.395 2°38.948 7.895193 3.255363 32.123062 68.120768
2003-03-19 08:28:19 51°9.386 2°38.919 8.017419 3.255258 32.120314 68.120768
2003-03-19 08:28:24 51°9.378 2°38.891 8.571461 3.255258 32.117121 68.120768
2003-03-19 08:28:28 51°9.371 2°38.868 8.571461 3.255258 32.117121 68.120768
2003-03-19 08:28:34 51°9.361 2°38.834 7.863352 3.255152 32.113576 68.120768
2003-03-19 08:28:38 51°9.355 2°38.811 7.786762 3.255468 32.112241 68.120768
2003-03-19 08:28:44 51°9.344 2°38.777 8.541248 3.255363 32.108697 68.154477
2003-03-19 08:28:48 51°9.337 2°38.754 8.10494 3.255047 32.102852 68.356734
2003-03-19 08:28:54 51°9.327 2°38.72 8.108369 3.255363 32.103912 68.221896
2003-03-19 08:28:58 51°9.319 2°38.698 8.108369 3.255363 32.103912 68.221896
2003-03-19 08:29:04 51°9.309 2°38.664 7.874064 3.255363 32.102317 66.502717
2003-03-19 08:29:09 51°9.3 2°38.636 8.032844 3.255679 32.10258 63.974512
2003-03-19 08:29:14 51°9.291 2°38.607 7.915297 3.255468 32.099481 62.92952
2003-03-19 08:29:18 51°9.284 2°38.585 7.797002 3.255679 32.098594 60.738409
2003-03-19 08:29:24 51°9.274 2°38.551 7.639582 3.255679 32.097797 60.772118
2003-03-19 08:29:28 51°9.266 2°38.528 7.639582 3.255679 32.097797 60.772118
2003-03-19 08:29:34 51°9.256 2°38.494 8.195766 3.255573 32.095052 59.390033
2003-03-19 08:29:38 51°9.249 2°38.472 7.721401 3.2561 32.100007 59.659708
2003-03-19 08:29:44 51°9.238 2°38.438 8.434334 2.531993 24.325142 59.288905
2003-03-19 08:29:48 51°9.231 2°38.415 7.527356 3.255889 32.093722 58.98552
2003-03-19 08:29:54 51°9.22 2°38.382 8.402614 3.2561 32.096022 58.243913
2003-03-19 08:29:59 51°9.211 2°38.353 8.402614 3.2561 32.096022 58.243913
2003-03-19 08:30:04 51°9.202 2°38.326 7.768365 3.25631 32.095932 58.311332
2003-03-19 08:30:09 51°9.193 2°38.298 7.290572 3.256521 32.096639 58.581007
2003-03-19 08:30:14 51°9.185 2°38.269 7.970492 3.256626 32.096196 58.98552
2003-03-19 08:30:18 51°9.178 2°38.246 7.775064 3.256837 32.098496 58.614717
2003-03-19 08:30:24 51°9.167 2°38.212 7.974219 3.257048 32.099203 59.457452
2003-03-19 08:30:29 51°9.158 2°38.184 7.974219 3.257048 32.099203 59.457452
2003-03-19 08:30:34 51°9.149 2°38.156 8.136806 3.257153 32.097963 59.794546
2003-03-19 08:30:38 51°9.142 2°38.134 8.021191 3.257258 32.096723 60.13164
2003-03-19 08:30:44 51°9.13 2°38.101 7.705172 3.258101 32.104328 60.7047
2003-03-19 08:30:49 51°9.121 2°38.074 7.989557 3.257679 32.098933 61.513725
2003-03-19 08:30:54 51°9.112 2°38.048 7.749865 3.25789 32.098843 62.019366
2003-03-19 08:30:58 51°9.105 2°38.026 7.749865 3.25789 32.098843 62.019366
2003-03-19 08:31:04 51°9.094 2°37.994 7.910889 3.2581 32.099549 63.839674
2003-03-19 08:31:09 51°9.084 2°37.968 8.269173 3.2581 32.09716 64.884665
2003-03-19 08:31:14 51°9.075 2°37.941 7.955149 3.258416 32.099016 65.053212
2003-03-19 08:31:18 51°9.067 2°37.921 7.680092 3.258732 32.098483 66.266751
2003-03-19 08:31:24 51°9.056 2°37.89 7.919899 3.258943 32.09919 66.570136
2003-03-19 08:31:28 51°9.048 2°37.87 7.919899 3.258943 32.09919 66.570136
2003-03-19 08:31:34 51°9.037 2°37.84 7.764432 3.259048 32.098747 67.513999
2003-03-19 08:31:38 51°9.03 2°37.82 8.045172 3.259153 32.098304 68.289315
2003-03-19 08:31:44 51°9.02 2°37.789 7.887925 3.259153 32.096712 68.356734
2003-03-19 08:31:49 51°9.013 2°37.763 8.368041 3.259153 32.094324 68.221896
2003-03-19 08:31:54 51°9.007 2°37.736 8.210859 3.259469 32.09618 68.221896
2003-03-19 08:31:58 51°9.003 2°37.715 8.210859 3.259469 32.09618 68.221896
2003-03-19 08:32:04 51°8.997 2°37.682 8.015629 3.259364 32.091053 68.289315
2003-03-19 08:32:09 51°8.993 2°37.656 8.214427 3.259469 32.091406 68.188187
2003-03-19 08:32:14 51°8.989 2°37.629 7.89936 3.25968 32.088931 68.289315
2003-03-19 08:32:18 51°8.986 2°37.607 7.98109 3.25968 32.086545 68.221896
2003-03-19 08:32:24 51°8.981 2°37.575 7.58639 3.259996 32.086014 68.188187
2003-03-19 08:32:29 51°8.977 2°37.548 7.58639 3.259996 32.086014 68.188187
2003-03-19 08:32:34 51°8.973 2°37.522 8.106244 3.260206 32.086721 68.188187
2003-03-19 08:32:38 51°8.97 2°37.501 8.028879 3.260206 32.085131 68.120768
2003-03-19 08:32:44 51°8.965 2°37.47 8.109721 3.260206 32.083541 68.120768
2003-03-19 08:32:49 51°8.961 2°37.443 8.545997 3.259996 32.07886 68.154477
2003-03-19 08:32:54 51°8.958 2°37.416 7.917574 3.260101 32.079213 68.154477
2003-03-19 08:32:58 51°8.956 2°37.395 7.917574 3.260101 32.079213 68.154477
2003-03-19 08:33:04 51°8.956 2°37.363 8.157463 3.260206 32.077977 68.120768
2003-03-19 08:33:09 51°8.957 2°37.337 7.884339 3.260417 32.078684 68.154477
2003-03-19 08:33:13 51°8.96 2°37.317 7.889669 3.260627 32.078597 68.154477
2003-03-19 08:33:18 51°8.964 2°37.293 8.01089 3.260943 32.079657 68.154477
2003-03-19 08:33:24 51°8.972 2°37.266 8.214957 3.261049 32.077627 68.120768
2003-03-19 08:33:29 51°8.98 2°37.246 8.214957 3.261049 32.077627 68.120768
2003-03-19 08:33:33 51°8.988 2°37.231 7.739715 3.261575 32.079394 68.154477
2003-03-19 08:33:38 51°8.998 2°37.215 8.065761 3.262102 32.081955 68.120768
2003-03-19 08:33:42 51°9.008 2°37.206 8.068225 3.262733 32.084869 68.154477
2003-03-19 08:33:48 51°9.022 2°37.194 8.390643 3.26326 32.085841 68.120768
2003-03-19 08:33:54 51°9.038 2°37.189 8.200444 3.263681 32.08646 68.154477
2003-03-19 08:33:58 51°9.048 2°37.188 8.200444 3.263681 32.08646 68.154477
2003-03-19 08:34:04 51°9.062 2°37.19 8.157608 3.264102 32.087873 68.154477
2003-03-19 08:34:08 51°9.071 2°37.192 8.063345 3.264839 32.092727 68.154477
2003-03-19 08:34:14 51°9.083 2°37.198 6.737731 3.265261 32.092551 68.120768
2003-03-19 08:34:18 51°9.09 2°37.203 6.760866 3.265998 32.097404 68.120768
2003-03-19 08:34:24 51°9.1 2°37.21 6.712613 3.266208 32.097316 68.154477
2003-03-19 08:34:28 51°9.107 2°37.215 6.712613 3.266208 32.097316 68.154477
2003-03-19 08:34:34 51°9.115 2°37.223 6.709257 3.266524 32.096787 68.188187
2003-03-19 08:34:38 51°9.12 2°37.228 6.706098 3.267472 32.109489 68.120768
2003-03-19 08:34:44 51°9.126 2°37.234 6.704814 3.268314 32.119459 68.424153
2003-03-19 08:34:48 51°9.128 2°37.239 6.745181 3.269684 32.137549 65.558853
2003-03-19 08:34:53 51°9.131 2°37.244 6.703432 3.270842 32.158122 64.547571
2003-03-19 08:34:58 51°9.132 2°37.249 6.703432 3.270842 32.158122 64.547571
2003-03-19 08:35:04 51°9.134 2°37.254 6.702297 3.271474 32.172968 65.18805
2003-03-19 08:35:09 51°9.134 2°37.256 6.742665 3.271158 32.175099 67.311742
2003-03-19 08:35:14 51°9.135 2°37.257 6.74153 3.271895 32.187119 65.356597
2003-03-19 08:35:18 51°9.135 2°37.257 6.705802 3.272106 32.191806 65.019503
2003-03-19 08:35:24 51°9.135 2°37.258 6.706443 3.272211 32.196143 63.704836
2003-03-19 08:35:29 51°9.135 2°37.258 6.706443 3.272211 32.196143 63.704836
2003-03-19 08:35:34 51°9.134 2°37.258 6.707529 3.272422 32.200832 63.704836
2003-03-19 08:35:38 51°9.133 2°37.258 6.702099 3.272422 32.20163 63.165486
2003-03-19 08:35:44 51°9.133 2°37.259 6.698644 3.272317 32.201279 62.120494
2003-03-19 08:35:49 51°9.132 2°37.259 6.696175 3.272317 32.202076 61.614853
2003-03-19 08:35:54 51°9.131 2°37.259 6.694398 3.272422 32.202427 62.019366
2003-03-19 08:35:58 51°9.13 2°37.258 6.694398 3.272422 32.202427 62.019366
2003-03-19 08:36:04 51°9.127 2°37.257 6.693164 3.272633 32.203927 62.92952
2003-03-19 08:36:09 51°9.124 2°37.256 6.731317 3.273265 32.210818 67.042067
2003-03-19 08:36:14 51°9.123 2°37.256 6.692275 3.274002 32.220454 68.356734
2003-03-19 08:36:18 51°9.122 2°37.256 6.692966 3.274844 32.232837 68.188187
2003-03-19 08:36:24 51°9.121 2°37.256 6.692324 3.275897 32.245922 68.154477
2003-03-19 08:36:28 51°9.121 2°37.256 6.692324 3.275897 32.245922 68.154477
2003-03-19 08:36:34 51°9.12 2°37.257 6.733093 3.27674 32.256712 68.154477
2003-03-19 08:36:38 51°9.12 2°37.257 6.73255 3.276424 32.254863 68.255606
2003-03-19 08:36:44 51°9.119 2°37.258 6.692571 3.276213 32.254962 68.154477
2003-03-19 08:36:49 51°9.118 2°37.258 6.691979 3.275897 32.250716 68.323024
2003-03-19 08:36:53 51°9.117 2°37.258 6.693411 3.275266 32.243821 66.469007
2003-03-19 08:36:58 51°9.116 2°37.259 6.693411 3.275266 32.243821 66.469007
2003-03-19 08:37:04 51°9.115 2°37.259 6.696817 3.274844 32.238426 66.87352
2003-03-19 08:37:08 51°9.115 2°37.259 6.702149 3.274634 32.236128 65.794819
2003-03-19 08:37:14 51°9.114 2°37.259 6.70516 3.274528 32.234979 64.884665
2003-03-19 08:37:18 51°9.114 2°37.26 6.706345 3.274212 32.231533 65.053212
2003-03-19 08:37:24 51°9.114 2°37.26 6.747549 3.274423 32.234629 63.772255
2003-03-19 08:37:28 51°9.114 2°37.26 6.747549 3.274423 32.234629 63.772255
2003-03-19 08:37:34 51°9.115 2°37.261 6.705851 3.274212 32.230734 60.805828
2003-03-19 08:37:38 51°9.115 2°37.262 6.705802 3.273791 32.223743 57.367469
2003-03-19 08:37:44 51°9.114 2°37.263 6.702692 3.27337 32.216754 55.648289
2003-03-19 08:37:48 51°9.114 2°37.263 6.702692 3.273265 32.214009 55.007811
2003-03-19 08:37:54 51°9.113 2°37.263 6.701606 3.272949 32.208968 55.513452
2003-03-19 08:37:59 51°9.113 2°37.263 6.701606 3.272949 32.208968 55.513452
2003-03-19 08:38:04 51°9.113 2°37.262 6.700668 3.272949 32.20817 55.850546
2003-03-19 08:38:09 51°9.113 2°37.262 6.701606 3.272843 32.207022 57.097794
2003-03-19 08:38:14 51°9.113 2°37.261 6.704469 3.272949 32.208968 58.648426
2003-03-19 08:38:18 51°9.114 2°37.261 6.707677 3.272843 32.208617 58.581007
2003-03-19 08:38:22 51°9.114 2°37.261 6.706443 3.272317 32.202874 58.479879
2003-03-19 08:38:28 51°9.114 2°37.261 6.706443 3.272317 32.202874 58.479879
2003-03-19 08:38:34 51°9.114 2°37.26 6.710096 3.272422 32.20482 58.176494
2003-03-19 08:38:38 51°9.114 2°37.26 6.70827 3.272527 32.205969 58.210204
2003-03-19 08:38:44 51°9.114 2°37.26 6.746315 3.272211 32.201725 57.097794
2003-03-19 08:38:49 51°9.114 2°37.26 6.702149 3.272422 32.203225 57.064084
2003-03-19 08:38:54 51°9.114 2°37.259 6.699927 3.272317 32.199684 56.659571
2003-03-19 08:38:58 51°9.114 2°37.26 6.699927 3.272317 32.199684 56.659571
2003-03-19 08:39:04 51°9.115 2°37.259 6.69894 3.272422 32.200035 56.524734
2003-03-19 08:39:09 51°9.115 2°37.259 6.69662 3.272422 32.200035 57.704563
2003-03-19 08:39:14 51°9.115 2°37.259 6.697903 3.272527 32.201183 58.513589
2003-03-19 08:39:18 51°9.115 2°37.259 6.699927 3.272422 32.202427 59.255195
2003-03-19 08:39:24 51°9.116 2°37.258 6.747154 3.272317 32.202076 59.322614
2003-03-19 08:39:29 51°9.116 2°37.257 6.747154 3.272317 32.202076 59.322614
2003-03-19 08:39:34 51°9.116 2°37.257 6.75554 3.272317 32.203672 59.322614
2003-03-19 08:39:38 51°9.116 2°37.257 6.758203 3.272001 32.201821 60.401315
2003-03-19 08:39:44 51°9.117 2°37.257 6.762839 3.27179 32.200321 60.232768
2003-03-19 08:39:49 51°9.117 2°37.257 6.725593 3.271896 32.200672 57.030375
2003-03-19 08:39:54 51°9.118 2°37.256 6.726432 3.271896 32.199875 52.108802
2003-03-19 08:39:58 51°9.118 2°37.256 6.726432 3.271896 32.199875 52.108802
2003-03-19 08:40:04 51°9.119 2°37.255 6.728258 3.271685 32.193591 48.737862
2003-03-19 08:40:09 51°9.119 2°37.254 6.728356 3.272001 32.192252 45.973691
2003-03-19 08:40:14 51°9.12 2°37.253 6.726827 3.272211 32.190564 44.288221
2003-03-19 08:40:18 51°9.121 2°37.253 6.728159 3.272527 32.189226 43.007264
2003-03-19 08:40:24 51°9.121 2°37.252 6.728652 3.272422 32.186485 41.760016
2003-03-19 08:40:28 51°9.121 2°37.252 6.728652 3.272422 32.186485 41.760016
2003-03-19 08:40:34 51°9.121 2°37.252 6.729738 3.272843 32.19028 41.119537
2003-03-19 08:40:38 51°9.121 2°37.251 6.770582 3.272632 32.185594 40.41164
2003-03-19 08:40:44 51°9.12 2°37.251 6.730922 3.272948 32.187444 39.973418
2003-03-19 08:40:49 51°9.121 2°37.25 6.729837 3.272843 32.186296 39.400358
2003-03-19 08:40:54 51°9.121 2°37.25 6.810216 3.272843 32.187093 38.827298
2003-03-19 08:40:58 51°9.121 2°37.249 6.810216 3.272843 32.187093 38.827298
2003-03-19 08:41:04 51°9.121 2°37.248 6.730527 3.273054 32.188592 38.389076
2003-03-19 08:41:08 51°9.121 2°37.248 6.728899 3.271895 32.174374 38.759879
2003-03-19 08:41:14 51°9.121 2°37.247 6.811054 3.271895 32.174374 38.523913
2003-03-19 08:41:18 51°9.121 2°37.247 6.729541 3.273159 32.186553 38.287947
2003-03-19 08:41:24 51°9.121 2°37.246 6.725889 3.273159 32.18735 38.861007
2003-03-19 08:41:29 51°9.121 2°37.245 6.725889 3.273159 32.18735 38.861007
2003-03-19 08:41:33 51°9.122 2°37.244 6.759633 3.271685 32.171282 38.557623
2003-03-19 08:41:38 51°9.122 2°37.243 6.722583 3.272948 32.186648 38.793589
2003-03-19 08:41:44 51°9.123 2°37.241 6.72579 3.273159 32.18735 38.962136
2003-03-19 08:41:49 51°9.123 2°37.241 6.726679 3.272738 32.182759 39.872289
2003-03-19 08:41:54 51°9.123 2°37.24 6.761606 3.272106 32.176669 43.040973
2003-03-19 08:41:58 51°9.123 2°37.239 6.761606 3.272106 32.176669 43.040973
2003-03-19 08:42:04 51°9.122 2°37.239 6.715871 3.271685 32.174467 42.805007
2003-03-19 08:42:08 51°9.122 2°37.238 6.717302 3.272738 32.187538 41.861144
2003-03-19 08:42:14 51°9.122 2°37.237 6.718092 3.272632 32.184797 41.119537
2003-03-19 08:42:18 51°9.122 2°37.236 6.716858 3.272632 32.184001 41.018409
2003-03-19 08:42:24 51°9.122 2°37.235 6.712317 3.272422 32.181705 43.883708
2003-03-19 08:42:29 51°9.122 2°37.235 6.712317 3.272422 32.181705 43.883708
2003-03-19 08:42:34 51°9.122 2°37.234 6.794395 3.273475 32.197168 44.760153
2003-03-19 08:42:38 51°9.122 2°37.233 6.717796 3.272843 32.191873 44.490477
2003-03-19 08:42:44 51°9.122 2°37.231 6.719178 3.272738 32.192319 44.018546
2003-03-19 08:42:49 51°9.122 2°37.23 6.721596 3.272317 32.188524 45.097247
2003-03-19 08:42:54 51°9.122 2°37.229 6.720757 3.272527 32.192414 45.198375
2003-03-19 08:42:58 51°9.122 2°37.229 6.720757 3.272527 32.192414 45.198375
2003-03-19 08:43:04 51°9.121 2°37.228 6.716463 3.27179 32.185174 44.89499
2003-03-19 08:43:08 51°9.121 2°37.227 6.756329 3.272738 32.195507 44.692734
2003-03-19 08:43:14 51°9.121 2°37.226 6.755737 3.272001 32.186673 43.445486
2003-03-19 08:43:18 51°9.122 2°37.225 6.714637 3.272001 32.18508 42.67017
2003-03-19 08:43:24 51°9.121 2°37.224 6.758696 3.272211 32.184986 44.187093
2003-03-19 08:43:29 51°9.121 2°37.223 6.758696 3.272211 32.184986 44.187093
2003-03-19 08:43:33 51°9.12 2°37.222 6.716957 3.272843 32.193467 46.074819
2003-03-19 08:43:38 51°9.12 2°37.222 6.715871 3.272843 32.195061 46.479332
2003-03-19 08:43:44 51°9.12 2°37.222 6.713403 3.273054 32.198155 45.670306
2003-03-19 08:43:49 51°9.12 2°37.221 6.713798 3.273054 32.198155 45.704016
2003-03-19 08:43:54 51°9.12 2°37.221 6.712613 3.272948 32.197804 45.164665
2003-03-19 08:43:58 51°9.12 2°37.22 6.712613 3.272948 32.197804 45.164665
2003-03-19 08:44:04 51°9.119 2°37.218 6.711922 3.271895 32.184729 44.9287
2003-03-19 08:44:08 51°9.119 2°37.218 6.713699 3.272527 32.191617 47.254648
2003-03-19 08:44:14 51°9.118 2°37.216 6.752136 3.272211 32.189767 48.367059
2003-03-19 08:44:19 51°9.117 2°37.215 6.711133 3.273159 32.2001 48.603024
2003-03-19 08:44:24 51°9.117 2°37.214 6.745181 3.272949 32.199398 49.917691
2003-03-19 08:44:29 51°9.117 2°37.213 6.745181 3.272949 32.199398 49.917691
2003-03-19 08:44:33 51°9.116 2°37.212 6.702791 3.273475 32.205139 49.007537
2003-03-19 08:44:38 51°9.116 2°37.211 6.740001 3.274002 32.210083 47.895127
2003-03-19 08:44:44 51°9.115 2°37.21 6.735807 3.272843 32.199844 49.782853
2003-03-19 08:44:49 51°9.115 2°37.209 6.738915 3.273686 32.209031 51.502033
2003-03-19 08:44:54 51°9.115 2°37.207 6.737484 3.273159 32.204884 54.232494
2003-03-19 08:44:59 51°9.114 2°37.206 6.737484 3.273159 32.204884 54.232494
2003-03-19 08:45:04 51°9.114 2°37.205 6.74153 3.27358 32.211073 56.389896
2003-03-19 08:45:08 51°9.113 2°37.204 6.707776 3.274739 32.227696 58.378751
2003-03-19 08:45:14 51°9.113 2°37.202 6.747351 3.27516 32.233888 58.44617
2003-03-19 08:45:18 51°9.112 2°37.202 6.706641 3.274739 32.230889 58.243913
2003-03-19 08:45:24 51°9.111 2°37.202 6.707332 3.276424 32.24927 57.738272
2003-03-19 08:45:29 51°9.111 2°37.201 6.707332 3.276424 32.24927 57.738272
2003-03-19 08:45:33 51°9.111 2°37.2 6.707924 3.276213 32.246973 55.243777
2003-03-19 08:45:38 51°9.11 2°37.199 6.709948 3.276108 32.244226 54.50217
2003-03-19 08:45:44 51°9.109 2°37.199 6.715328 3.276003 32.239884 54.333623
2003-03-19 08:45:49 51°9.108 2°37.198 6.718635 3.274212 32.218761 54.50217
2003-03-19 08:45:53 51°9.108 2°37.197 6.714341 3.276213 32.241382 54.401042
2003-03-19 08:45:58 51°9.107 2°37.197 6.714341 3.276213 32.241382 54.401042
2003-03-19 08:46:04 51°9.107 2°37.196 6.712268 3.275897 32.23634 53.558306
2003-03-19 08:46:09 51°9.106 2°37.195 6.711034 3.274528 32.220611 50.625589
2003-03-19 08:46:14 51°9.105 2°37.194 6.710145 3.275687 32.23085 46.715298
2003-03-19 08:46:18 51°9.105 2°37.194 6.715229 3.275055 32.221566 46.445623
2003-03-19 08:46:24 51°9.104 2°37.193 6.759781 3.274949 32.218822 47.423195
2003-03-19 08:46:29 51°9.104 2°37.193 6.759781 3.274949 32.218822 47.423195
2003-03-19 08:46:34 51°9.103 2°37.192 6.722978 3.275055 32.219173 48.232221
2003-03-19 08:46:38 51°9.103 2°37.191 6.725494 3.274949 32.21962 49.277212
2003-03-19 08:46:44 51°9.103 2°37.19 6.728899 3.275476 32.227755 47.490614
2003-03-19 08:46:49 51°9.103 2°37.189 6.730429 3.275055 32.221566 44.153383
2003-03-19 08:46:54 51°9.102 2°37.188 6.72959 3.274423 32.212284 42.906136
2003-03-19 08:46:58 51°9.102 2°37.188 6.72959 3.274423 32.212284 42.906136
2003-03-19 08:47:04 51°9.101 2°37.188 6.733833 3.274212 32.207595 41.726306
2003-03-19 08:47:09 51°9.1 2°37.188 6.737238 3.271895 32.179152 41.254375
2003-03-19 08:47:14 51°9.099 2°37.188 6.740001 3.273791 32.197424 40.647606
2003-03-19 08:47:18 51°9.098 2°37.188 6.742566 3.273896 32.196978 40.37793
2003-03-19 08:47:24 51°9.098 2°37.188 6.827216 3.273791 32.194236 39.535195
2003-03-19 08:47:28 51°9.098 2°37.188 6.827216 3.273791 32.194236 39.535195
2003-03-19 08:47:34 51°9.098 2°37.187 6.747697 3.271685 32.168894 38.625042
2003-03-19 08:47:38 51°9.098 2°37.187 6.749078 3.27179 32.169246 37.108118
2003-03-19 08:47:44 51°9.097 2°37.186 6.790057 3.273685 32.187513 36.029418
2003-03-19 08:47:49 51°9.097 2°37.186 6.790599 3.27358 32.18318 35.186683
2003-03-19 08:47:54 51°9.096 2°37.186 6.752629 3.271684 32.159345 34.478785
2003-03-19 08:47:58 51°9.096 2°37.186 6.752629 3.271684 32.159345 34.478785
2003-03-19 08:48:03 51°9.095 2°37.186 6.74819 3.27179 32.15731 34.377657
2003-03-19 08:48:09 51°9.095 2°37.186 6.778372 3.273791 32.177514 34.1754
2003-03-19 08:48:14 51°9.095 2°37.185 6.776745 3.274001 32.178217 34.107982
2003-03-19 08:48:18 51°9.094 2°37.185 6.731218 3.273685 32.173184 33.804597
2003-03-19 08:48:22 51°9.093 2°37.185 6.72505 3.272316 32.158273 34.445076
2003-03-19 08:48:28 51°9.093 2°37.185 6.72505 3.272316 32.158273 34.445076
2003-03-19 08:48:33 51°9.093 2°37.185 6.75914 3.273475 32.170095 36.029418
2003-03-19 08:48:38 51°9.093 2°37.185 6.719868 3.274317 32.180862 37.512631
2003-03-19 08:48:42 51°9.093 2°37.185 6.716907 3.274001 32.182197 38.962136
2003-03-19 08:48:48 51°9.093 2°37.184 6.718536 3.274001 32.18777 41.490341